MSR981 HECA-KIAD

Flight info

Callsign MSR981
Flight time 11h 22m
Altitude 36000
Route CVO L617 NABSI M872 METRU DCT KOR DCT IVMEP DCT TRO/N0487F380 DCT ARKIL DCT MALOT/M085F390 DCT 54N020W 54N030W 54N040W 53N050W DCT RIKAL/N0497F400 DCT TAFFY DCT KJOHN DCT ALB HYPER9
Aircraft A359/H-SDE2E3GHIJ1J3J4J5LM1ORWXY/LB1D1

Departure

Time 2026-05-04 22:37
Airport Cairo International Airport (HECA)

Arrival

Time 2026-05-05 09:59
Airport Washington Dulles International Airport (KIAD)
Time Latitude Longitude Altitude Speed Heading
2026-05-04 22:13 30.10787 31.39870 380 ft 0 kts 75°
2026-05-04 22:27 30.10783 31.39852 380 ft 2 kts 77°
2026-05-04 22:27 30.10779 31.39834 380 ft 2 kts 77°
2026-05-04 22:28 30.10776 31.39815 380 ft 2 kts 96°
2026-05-04 22:28 30.10781 31.39797 380 ft 2 kts 126°
2026-05-04 22:28 30.10793 31.39783 380 ft 2 kts 147°
2026-05-04 22:28 30.10801 31.39778 380 ft 1 kts 159°
2026-05-04 22:29 30.10802 31.39777 380 ft 0 kts 159°
2026-05-04 22:31 30.10800 31.39778 380 ft 2 kts 163°
2026-05-04 22:32 30.10755 31.39792 380 ft 10 kts 165°
2026-05-04 22:32 30.10673 31.39817 380 ft 14 kts 165°
2026-05-04 22:32 30.10561 31.39851 380 ft 19 kts 165°
2026-05-04 22:32 30.10436 31.39877 380 ft 11 kts 195°
2026-05-04 22:33 30.10377 31.39818 380 ft 13 kts 225°
2026-05-04 22:33 30.10309 31.39729 380 ft 16 kts 230°
2026-05-04 22:33 30.10228 31.39621 380 ft 20 kts 229°
2026-05-04 22:33 30.10119 31.39604 380 ft 17 kts 146°
2026-05-04 22:34 30.10061 31.39657 380 ft 4 kts 139°
2026-05-04 22:34 30.10056 31.39663 380 ft 0 kts 137°
2026-05-04 22:35 30.10055 31.39663 380 ft 0 kts 137°
2026-05-04 22:35 30.10035 31.39685 380 ft 9 kts 135°
2026-05-04 22:35 30.10006 31.39784 380 ft 18 kts 89°
2026-05-04 22:35 30.10001 31.39812 380 ft 2 kts 107°
2026-05-04 22:36 30.10019 31.39891 377 ft 20 kts 53°
2026-05-04 22:36 30.10203 31.40140 380 ft 68 kts 49°
2026-05-04 22:36 30.10638 31.40716 380 ft 121 kts 48°
2026-05-04 22:36 30.11296 31.41592 381 ft 167 kts 49°
2026-05-04 22:37 30.12062 31.42627 935 ft 164 kts 47°
2026-05-04 22:37 30.12827 31.43641 1454 ft 172 kts 44°
2026-05-04 22:37 30.13834 31.44319 1966 ft 168 kts
2026-05-04 22:37 30.14987 31.44484 2509 ft 166 kts 358°
2026-05-04 22:38 30.16097 31.44213 2900 ft 166 kts 334°
2026-05-04 22:38 30.17104 31.43515 3349 ft 167 kts 321°
2026-05-04 22:38 30.17987 31.42626 3628 ft 178 kts 314°
2026-05-04 22:38 30.18876 31.41544 3847 ft 194 kts 310°
2026-05-04 22:39 30.19815 31.40311 4016 ft 214 kts 310°
2026-05-04 22:39 30.20835 31.38966 4262 ft 232 kts 310°
2026-05-04 22:39 30.21950 31.37534 4653 ft 244 kts 310°
2026-05-04 22:39 30.23111 31.36085 5220 ft 248 kts 310°
2026-05-04 22:40 30.24305 31.34623 5848 ft 251 kts 310°
2026-05-04 22:40 30.25516 31.33155 6535 ft 253 kts 310°
2026-05-04 22:40 30.26737 31.31681 7179 ft 255 kts 310°
2026-05-04 22:40 30.27964 31.30198 7854 ft 256 kts 310°
2026-05-04 22:41 30.29178 31.28726 8551 ft 257 kts 309°
2026-05-04 22:41 30.30414 31.27227 9266 ft 259 kts 309°
2026-05-04 22:41 30.31659 31.25714 9968 ft 261 kts 308°
2026-05-04 22:41 30.32913 31.24188 10615 ft 262 kts 308°
2026-05-04 22:42 30.34197 31.22617 10978 ft 276 kts 308°
2026-05-04 22:42 30.35552 31.20952 11270 ft 291 kts 308°
2026-05-04 22:42 30.36975 31.19204 11584 ft 306 kts 308°
2026-05-04 22:42 30.38471 31.17374 11880 ft 319 kts 308°
2026-05-04 22:43 30.40008 31.15496 12168 ft 332 kts 308°
2026-05-04 22:43 30.41626 31.13523 12459 ft 343 kts 308°
2026-05-04 22:43 30.43287 31.11501 12925 ft 349 kts 308°
2026-05-04 22:43 30.44961 31.09467 13459 ft 352 kts 308°
2026-05-04 22:44 30.46664 31.07395 13995 ft 354 kts 308°
2026-05-04 22:44 30.48363 31.05324 14482 ft 356 kts 308°
2026-05-04 22:44 30.50077 31.03230 14970 ft 359 kts 308°
2026-05-04 22:44 30.51797 31.01126 15475 ft 360 kts 308°
2026-05-04 22:45 30.53526 30.99009 15987 ft 362 kts 308°
2026-05-04 22:45 30.56980 30.94774 16992 ft 366 kts 307°
2026-05-04 22:45 30.58736 30.92618 17533 ft 368 kts 307°
2026-05-04 22:46 30.60498 30.90453 18053 ft 371 kts 307°
2026-05-04 22:46 30.62276 30.88269 18574 ft 373 kts 307°
2026-05-04 22:46 30.64061 30.86074 19008 ft 375 kts 307°
2026-05-04 22:46 30.65857 30.83866 19458 ft 377 kts 307°
2026-05-04 22:47 30.67663 30.81644 19916 ft 379 kts 307°
2026-05-04 22:47 30.69474 30.79414 20371 ft 381 kts 307°
2026-05-04 22:47 30.71274 30.77196 20834 ft 383 kts 307°
2026-05-04 22:47 30.73107 30.74937 21300 ft 385 kts 306°
2026-05-04 22:48 30.74954 30.72659 21756 ft 388 kts 306°
2026-05-04 22:48 30.76808 30.70369 22206 ft 390 kts 306°
2026-05-04 22:48 30.78675 30.68063 22689 ft 393 kts 306°
2026-05-04 22:48 30.80549 30.65746 23157 ft 395 kts 306°
2026-05-04 22:49 30.82440 30.63407 23620 ft 397 kts 306°
2026-05-04 22:49 30.84336 30.61061 24012 ft 400 kts 306°
2026-05-04 22:49 30.86250 30.58691 24394 ft 403 kts 306°
2026-05-04 22:49 30.88148 30.56338 24801 ft 405 kts 306°
2026-05-04 22:50 30.90085 30.53938 25190 ft 407 kts 306°
2026-05-04 22:50 30.92028 30.51528 25578 ft 410 kts 306°
2026-05-04 22:50 30.93979 30.49107 25966 ft 412 kts 306°
2026-05-04 22:50 30.95950 30.46660 26345 ft 414 kts 306°
2026-05-04 22:51 30.97922 30.44210 26739 ft 416 kts 306°
2026-05-04 22:51 30.99908 30.41740 27115 ft 418 kts 306°
2026-05-04 22:51 31.01901 30.39260 27485 ft 421 kts 306°
2026-05-04 22:51 31.03906 30.36763 27860 ft 423 kts 306°
2026-05-04 22:52 31.05891 30.34278 28220 ft 424 kts 304°
2026-05-04 22:52 31.07730 30.31614 28580 ft 420 kts 298°
2026-05-04 22:52 31.09249 30.28727 28919 ft 416 kts 292°
2026-05-04 22:52 31.10446 30.25665 29265 ft 414 kts 287°
2026-05-04 22:53 31.11440 30.22515 29604 ft 414 kts 284°
2026-05-04 22:53 31.12323 30.19322 29925 ft 415 kts 283°
2026-05-04 22:53 31.13169 30.16076 30255 ft 416 kts 283°
2026-05-04 22:53 31.14000 30.12853 30671 ft 413 kts 283°
2026-05-04 22:54 31.14823 30.09699 31111 ft 411 kts 283°
2026-05-04 22:54 31.15664 30.06524 31498 ft 409 kts 283°
2026-05-04 22:54 31.16514 30.03351 31864 ft 408 kts 283°
2026-05-04 22:54 31.17366 30.00201 32231 ft 406 kts 283°
2026-05-04 22:55 31.18219 29.97400 32559 ft 408 kts 287°
2026-05-04 22:55 31.19443 29.94402 32883 ft 412 kts 292°
2026-05-04 22:55 31.20977 29.91556 33215 ft 415 kts 297°
2026-05-04 22:55 31.22627 29.88803 33543 ft 415 kts 297°
2026-05-04 22:56 31.24307 29.86098 33875 ft 415 kts 298°
2026-05-04 22:56 31.26015 29.83388 34174 ft 414 kts 298°
2026-05-04 22:56 31.27724 29.80684 34389 ft 414 kts 298°
2026-05-04 22:56 31.29431 29.77974 34587 ft 414 kts 298°
2026-05-04 22:57 31.31133 29.75260 34790 ft 414 kts 298°
2026-05-04 22:57 31.32829 29.72545 34984 ft 414 kts 298°
2026-05-04 22:57 31.34524 29.69823 35179 ft 414 kts 298°
2026-05-04 22:57 31.36220 29.67096 35364 ft 414 kts 298°
2026-05-04 22:58 31.37891 29.64405 35550 ft 414 kts 298°
2026-05-04 22:58 31.39584 29.61676 35715 ft 414 kts 298°
2026-05-04 22:58 31.41276 29.58948 35894 ft 415 kts 298°
2026-05-04 22:58 31.42968 29.56218 36057 ft 415 kts 298°
2026-05-04 22:59 31.46378 29.50705 36099 ft 421 kts 298°
2026-05-04 22:59 31.49821 29.45140 36108 ft 421 kts 298°
2026-05-04 23:00 31.53228 29.39631 36108 ft 420 kts 299°
2026-05-04 23:00 31.56648 29.34089 36125 ft 419 kts 298°
2026-05-04 23:01 31.60056 29.28555 36108 ft 419 kts 298°
2026-05-04 23:01 31.63459 29.23005 36112 ft 418 kts 298°
2026-05-04 23:02 31.66849 29.17463 36115 ft 418 kts 298°
2026-05-04 23:02 31.70236 29.11920 36116 ft 418 kts 298°
2026-05-04 23:03 31.73590 29.06426 36116 ft 417 kts 298°
2026-05-04 23:03 31.76975 29.00890 36116 ft 417 kts 298°
2026-05-04 23:04 31.80351 28.95342 36119 ft 417 kts 298°
2026-05-04 23:04 31.83721 28.89797 36119 ft 417 kts 299°
2026-05-04 23:05 31.86526 28.85178 36118 ft 417 kts 299°
2026-05-04 23:05 31.90435 28.78733 36114 ft 417 kts 299°
2026-05-04 23:06 31.93808 28.73165 36113 ft 417 kts 299°
2026-05-04 23:06 31.97171 28.67605 36102 ft 417 kts 299°
2026-05-04 23:07 32.00533 28.62036 36124 ft 417 kts 299°
2026-05-04 23:07 32.03873 28.56498 36113 ft 417 kts 299°
2026-05-04 23:08 32.07233 28.50917 36114 ft 417 kts 299°
2026-05-04 23:08 32.10587 28.45337 36116 ft 417 kts 299°
2026-05-04 23:09 32.13943 28.39747 36120 ft 417 kts 299°
2026-05-04 23:09 32.17275 28.34191 36114 ft 418 kts 299°
2026-05-04 23:10 32.20630 28.28586 36115 ft 418 kts 300°
2026-05-04 23:10 32.23981 28.22978 36114 ft 418 kts 300°
2026-05-04 23:11 32.27331 28.17366 36113 ft 418 kts 300°
2026-05-04 23:11 32.30613 28.11859 36114 ft 418 kts 300°
2026-05-04 23:12 32.33962 28.06232 36115 ft 419 kts 300°
2026-05-04 23:12 32.37313 28.00592 36117 ft 419 kts 300°
2026-05-04 23:13 32.40659 27.94954 36117 ft 419 kts 300°
2026-05-04 23:13 32.44004 27.89308 36118 ft 419 kts 300°
2026-05-04 23:14 32.47330 27.83685 36120 ft 419 kts 300°
2026-05-04 23:14 32.50671 27.78028 36116 ft 420 kts 300°
2026-05-04 23:15 32.54015 27.72358 36118 ft 420 kts 300°
2026-05-04 23:15 32.57358 27.66681 36120 ft 420 kts 300°
2026-05-04 23:16 32.60677 27.61038 36121 ft 420 kts 300°
2026-05-04 23:16 32.64019 27.55344 36119 ft 420 kts 300°
2026-05-04 23:17 32.67356 27.49653 36123 ft 421 kts 300°
2026-05-04 23:17 32.70695 27.43949 36119 ft 421 kts 300°
2026-05-04 23:18 32.74031 27.38237 36122 ft 421 kts 300°
2026-05-04 23:18 32.77339 27.32550 36122 ft 421 kts 301°
2026-05-04 23:19 32.80668 27.26818 36121 ft 421 kts 301°
2026-05-04 23:19 32.83997 27.21079 36117 ft 422 kts 301°
2026-05-04 23:20 32.87296 27.15386 36126 ft 422 kts 301°
2026-05-04 23:20 32.90606 27.09666 36121 ft 422 kts 301°
2026-05-04 23:21 32.93932 27.03908 36124 ft 422 kts 301°
2026-05-04 23:21 32.97258 26.98142 36124 ft 422 kts 301°
2026-05-04 23:22 33.00024 26.93348 36124 ft 422 kts 301°
2026-05-04 23:22 33.03875 26.86630 36128 ft 422 kts 301°
2026-05-04 23:23 33.07181 26.80851 36128 ft 422 kts 301°
2026-05-04 23:23 33.10486 26.75069 36124 ft 422 kts 301°
2026-05-04 23:24 33.13232 26.70262 36124 ft 422 kts 302°
2026-05-04 23:24 33.16531 26.64479 36121 ft 421 kts 302°
2026-05-04 23:25 33.20356 26.57761 36125 ft 421 kts 302°
2026-05-04 23:25 33.23089 26.52954 36124 ft 421 kts 302°
2026-05-04 23:26 33.26373 26.47169 36128 ft 421 kts 302°
2026-05-04 23:26 33.29652 26.41383 35953 ft 420 kts 302°
2026-05-04 23:27 33.31816 26.37545 36108 ft 421 kts 304°
2026-05-04 23:27 33.32926 26.35582 36125 ft 423 kts 304°
2026-05-04 23:27 33.36241 26.29724 36130 ft 425 kts 304°
2026-05-04 23:28 33.39527 26.23906 36126 ft 425 kts 304°
2026-05-04 23:28 33.42829 26.18046 36129 ft 424 kts 304°
2026-05-04 23:29 33.46126 26.12182 36125 ft 424 kts 304°
2026-05-04 23:29 33.49419 26.06316 36132 ft 424 kts 304°
2026-05-04 23:30 33.52686 26.00487 36130 ft 424 kts 304°
2026-05-04 23:30 33.55975 25.94611 36132 ft 424 kts 304°
2026-05-04 23:31 33.59257 25.88737 36128 ft 424 kts 304°
2026-05-04 23:31 33.62538 25.82854 36135 ft 424 kts 304°
2026-05-04 23:32 33.65814 25.76973 36134 ft 424 kts 304°
2026-05-04 23:32 33.69065 25.71127 36142 ft 424 kts 304°
2026-05-04 23:33 33.72337 25.65232 36135 ft 424 kts 304°
2026-05-04 23:33 33.75603 25.59339 36132 ft 424 kts 304°
2026-05-04 23:34 33.78869 25.53437 36141 ft 424 kts 304°
2026-05-04 23:34 33.82131 25.47534 36133 ft 424 kts 304°
2026-05-04 23:35 33.85369 25.41663 36135 ft 424 kts 304°
2026-05-04 23:35 33.88621 25.35756 36136 ft 424 kts 304°
2026-05-04 23:36 33.91845 25.29893 36135 ft 424 kts 304°
2026-05-04 23:36 33.95094 25.23973 36132 ft 424 kts 304°
2026-05-04 23:37 33.98561 25.18249 36134 ft 423 kts 312°
2026-05-04 23:37 34.03014 25.13699 36134 ft 425 kts 326°
2026-05-04 23:38 34.08316 25.10469 36136 ft 428 kts 332°
2026-05-04 23:38 34.13780 25.07563 36136 ft 429 kts 333°
2026-05-04 23:39 34.19253 25.04684 36136 ft 429 kts 333°
2026-05-04 23:39 34.24718 25.01774 36130 ft 429 kts 333°
2026-05-04 23:40 34.30142 24.98862 36132 ft 429 kts 333°
2026-05-04 23:40 34.35596 24.95923 36133 ft 429 kts 333°
2026-05-04 23:41 34.41051 24.92982 36131 ft 429 kts 333°
2026-05-04 23:41 34.46468 24.90057 36130 ft 429 kts 333°
2026-05-04 23:42 34.51925 24.87107 36132 ft 429 kts 333°
2026-05-04 23:42 34.57381 24.84153 36130 ft 429 kts 333°
2026-05-04 23:43 34.62833 24.81198 36133 ft 429 kts 333°
2026-05-04 23:43 34.68290 24.78235 36134 ft 429 kts 333°
2026-05-04 23:44 34.73710 24.75288 36133 ft 430 kts 333°
2026-05-04 23:44 34.79167 24.72317 36129 ft 430 kts 333°
2026-05-04 23:45 34.84626 24.69340 36133 ft 430 kts 333°
2026-05-04 23:45 34.90092 24.66355 36136 ft 430 kts 333°
2026-05-04 23:46 34.95521 24.63386 36137 ft 431 kts 333°
2026-05-04 23:46 35.00990 24.60391 36136 ft 431 kts 333°
2026-05-04 23:47 35.06457 24.57392 36137 ft 431 kts 333°
2026-05-04 23:47 35.11928 24.54387 36134 ft 431 kts 333°
2026-05-04 23:48 35.17302 24.51431 36138 ft 431 kts 333°
2026-05-04 23:48 35.22763 24.48423 36135 ft 431 kts 333°
2026-05-04 23:49 35.28232 24.45405 36140 ft 431 kts 333°
2026-05-04 23:49 35.33666 24.42402 36144 ft 431 kts 333°
2026-05-04 23:50 35.39134 24.39377 36143 ft 432 kts 333°
2026-05-04 23:50 35.44612 24.36341 36150 ft 432 kts 333°
2026-05-04 23:51 35.50091 24.33300 36149 ft 432 kts 333°
2026-05-04 23:51 35.55573 24.30253 36154 ft 433 kts 333°
2026-05-04 23:52 35.61018 24.27221 36155 ft 433 kts 333°
2026-05-04 23:52 35.66506 24.24161 36152 ft 433 kts 333°
2026-05-04 23:53 35.71998 24.21095 36150 ft 433 kts 333°
2026-05-04 23:53 35.77490 24.18023 36139 ft 434 kts 333°
2026-05-04 23:54 35.82979 24.14949 36136 ft 434 kts 333°
2026-05-04 23:54 35.88386 24.11916 36132 ft 434 kts 333°
2026-05-04 23:55 35.93885 24.08827 36128 ft 434 kts 333°
2026-05-04 23:56 36.02130 24.04186 36125 ft 435 kts 333°
2026-05-04 23:56 36.07599 24.01102 36131 ft 435 kts 333°
2026-05-04 23:57 36.13101 23.97994 36122 ft 435 kts 333°
2026-05-04 23:57 36.18611 23.94877 36125 ft 435 kts 333°
2026-05-04 23:58 36.24088 23.91774 36138 ft 436 kts 333°
2026-05-04 23:58 36.29601 23.88646 36120 ft 436 kts 333°
2026-05-04 23:59 36.35117 23.85510 36141 ft 436 kts 333°
2026-05-04 23:59 36.40634 23.82370 36122 ft 436 kts 333°
2026-05-05 00:00 36.46150 23.79225 36129 ft 437 kts 333°
2026-05-05 00:00 36.51634 23.76094 36131 ft 437 kts 333°
2026-05-05 00:01 36.57111 23.72962 36128 ft 437 kts 333°
2026-05-05 00:01 36.62632 23.69799 36126 ft 437 kts 333°
2026-05-05 00:02 36.68150 23.66633 36128 ft 437 kts 333°
2026-05-05 00:02 36.73686 23.63452 36125 ft 438 kts 333°
2026-05-05 00:03 36.79178 23.60291 36140 ft 437 kts 333°
2026-05-05 00:03 36.84700 23.57108 36126 ft 438 kts 333°
2026-05-05 00:04 36.90231 23.53914 36126 ft 438 kts 333°
2026-05-05 00:04 36.95765 23.50714 36131 ft 439 kts 333°
2026-05-05 00:05 37.01312 23.47500 36126 ft 439 kts 333°
2026-05-05 00:05 37.06819 23.44306 36126 ft 439 kts 333°
2026-05-05 00:06 37.12359 23.41087 36128 ft 439 kts 333°
2026-05-05 00:06 37.17905 23.37858 36127 ft 440 kts 333°
2026-05-05 00:07 37.23462 23.34618 36127 ft 440 kts 333°
2026-05-05 00:07 37.29017 23.31375 36127 ft 440 kts 333°
2026-05-05 00:08 37.34533 23.28148 36128 ft 441 kts 333°
2026-05-05 00:08 37.40098 23.24888 36132 ft 441 kts 333°
2026-05-05 00:09 37.45655 23.21627 36124 ft 441 kts 333°
2026-05-05 00:09 37.51218 23.18358 36133 ft 441 kts 333°
2026-05-05 00:10 37.56739 23.15106 36134 ft 441 kts 333°
2026-05-05 00:10 37.62300 23.11827 36137 ft 441 kts 334°
2026-05-05 00:11 37.67853 23.08546 36133 ft 441 kts 334°
2026-05-05 00:11 37.73414 23.05256 36134 ft 441 kts 334°
2026-05-05 00:12 37.78931 23.01986 36135 ft 441 kts 334°
2026-05-05 00:12 37.84493 22.98684 36137 ft 441 kts 334°
2026-05-05 00:13 37.90011 22.95278 36136 ft 441 kts 329°
2026-05-05 00:13 37.94861 22.90560 36134 ft 441 kts 315°
2026-05-05 00:14 37.98866 22.84729 36139 ft 442 kts 311°
2026-05-05 00:14 38.02748 22.78672 36140 ft 443 kts 310°
2026-05-05 00:15 38.06614 22.72596 36144 ft 443 kts 310°
2026-05-05 00:15 38.10497 22.66528 36141 ft 443 kts 310°
2026-05-05 00:16 38.14385 22.60466 36144 ft 443 kts 310°
2026-05-05 00:16 38.18246 22.54439 36141 ft 443 kts 310°
2026-05-05 00:17 38.22126 22.48369 36147 ft 442 kts 310°
2026-05-05 00:17 38.26008 22.42282 36144 ft 442 kts 310°
2026-05-05 00:18 38.29879 22.36202 36149 ft 442 kts 310°
2026-05-05 00:18 38.33724 22.30152 36148 ft 442 kts 310°
2026-05-05 00:19 38.37588 22.24060 36149 ft 442 kts 310°
2026-05-05 00:19 38.41449 22.17961 36157 ft 442 kts 310°
2026-05-05 00:20 38.45303 22.11862 36162 ft 442 kts 310°
2026-05-05 00:20 38.49132 22.05790 36165 ft 442 kts 310°
2026-05-05 00:21 38.52983 21.99675 36167 ft 442 kts 310°
2026-05-05 00:21 38.56824 21.93561 36170 ft 441 kts 310°
2026-05-05 00:22 38.60668 21.87430 36168 ft 442 kts 310°
2026-05-05 00:22 38.64484 21.81335 36167 ft 442 kts 310°
2026-05-05 00:23 38.68319 21.75197 36183 ft 442 kts 310°
2026-05-05 00:23 38.72147 21.69057 36181 ft 442 kts 310°
2026-05-05 00:24 38.75978 21.62903 36181 ft 441 kts 310°
2026-05-05 00:24 38.79800 21.56750 36185 ft 441 kts 310°
2026-05-05 00:25 38.83590 21.50637 36182 ft 441 kts 310°
2026-05-05 00:25 38.87404 21.44474 36180 ft 441 kts 310°
2026-05-05 00:26 38.91214 21.38305 36176 ft 441 kts 310°
2026-05-05 00:26 38.95017 21.32135 36178 ft 441 kts 310°
2026-05-05 00:27 38.98818 21.25958 36179 ft 440 kts 310°
2026-05-05 00:27 39.02587 21.19819 36169 ft 440 kts 310°
2026-05-05 00:28 39.06375 21.13637 36168 ft 440 kts 309°
2026-05-05 00:28 39.10156 21.07456 36168 ft 440 kts 309°
2026-05-05 00:29 39.13938 21.01263 36165 ft 439 kts 309°
2026-05-05 00:29 39.17681 20.95119 36165 ft 439 kts 309°
2026-05-05 00:30 39.21450 20.88922 36162 ft 439 kts 309°
2026-05-05 00:30 39.25212 20.82724 36159 ft 438 kts 309°
2026-05-05 00:31 39.28968 20.76524 36163 ft 438 kts 309°
2026-05-05 00:31 39.32701 20.70349 36158 ft 438 kts 309°
2026-05-05 00:32 39.36451 20.64137 36162 ft 438 kts 309°
2026-05-05 00:32 39.40194 20.57920 36162 ft 438 kts 309°
2026-05-05 00:33 39.43935 20.51696 36161 ft 438 kts 309°
2026-05-05 00:33 39.47643 20.45515 36160 ft 438 kts 309°
2026-05-05 00:34 39.51374 20.39283 36151 ft 438 kts 309°
2026-05-05 00:34 39.55097 20.33053 36144 ft 437 kts 309°
2026-05-05 00:35 39.58814 20.26820 36135 ft 437 kts 309°
2026-05-05 00:35 39.62502 20.20623 36132 ft 437 kts 309°
2026-05-05 00:36 39.66209 20.14383 36131 ft 436 kts 309°
2026-05-05 00:36 39.69911 20.08141 36128 ft 436 kts 309°
2026-05-05 00:37 39.73609 20.01891 36125 ft 436 kts 309°
2026-05-05 00:37 39.77300 19.95641 36129 ft 436 kts 309°
2026-05-05 00:38 39.80967 19.89418 36127 ft 436 kts 309°
2026-05-05 00:38 39.84650 19.83156 36126 ft 436 kts 309°
2026-05-05 00:39 39.88337 19.76876 36119 ft 436 kts 309°
2026-05-05 00:39 39.92016 19.70597 36122 ft 436 kts 308°
2026-05-05 00:40 39.95655 19.64373 36123 ft 436 kts 308°
2026-05-05 00:40 39.99304 19.58120 36124 ft 436 kts 308°
2026-05-05 00:41 40.02974 19.51818 36119 ft 436 kts 308°
2026-05-05 00:41 40.06641 19.45509 36134 ft 436 kts 308°
2026-05-05 00:42 40.10283 19.39231 36116 ft 436 kts 308°
2026-05-05 00:42 40.13943 19.32908 36123 ft 436 kts 308°
2026-05-05 00:43 40.17600 19.26578 36133 ft 436 kts 308°
2026-05-05 00:43 40.21254 19.20241 36127 ft 436 kts 308°
2026-05-05 00:44 40.24904 19.13896 36109 ft 436 kts 308°
2026-05-05 00:44 40.28554 19.07540 36129 ft 436 kts 308°
2026-05-05 00:45 40.32175 19.01221 36129 ft 437 kts 308°
2026-05-05 00:45 40.35818 18.94851 36126 ft 437 kts 308°
2026-05-05 00:46 40.39455 18.88479 36128 ft 437 kts 308°
2026-05-05 00:46 40.43090 18.82097 36127 ft 437 kts 308°
2026-05-05 00:47 40.46698 18.75749 36127 ft 437 kts 308°
2026-05-05 00:47 40.50286 18.69424 36128 ft 437 kts 308°
2026-05-05 00:48 40.53915 18.63014 36125 ft 437 kts 308°
2026-05-05 00:48 40.57539 18.56599 36124 ft 437 kts 308°
2026-05-05 00:49 40.61133 18.50224 36120 ft 437 kts 308°
2026-05-05 00:49 40.64752 18.43791 36119 ft 437 kts 308°
2026-05-05 00:50 40.68364 18.37358 36117 ft 437 kts 307°
2026-05-05 00:50 40.71975 18.30913 36114 ft 437 kts 307°
2026-05-05 00:51 40.75585 18.24457 36109 ft 437 kts 307°
2026-05-05 00:51 40.79168 18.18035 36109 ft 438 kts 307°
2026-05-05 00:52 40.82774 18.11559 36108 ft 438 kts 307°
2026-05-05 00:52 40.86377 18.05074 36108 ft 438 kts 307°
2026-05-05 00:53 40.89976 17.98583 36110 ft 438 kts 307°
2026-05-05 00:53 40.93549 17.92125 36108 ft 438 kts 307°
2026-05-05 00:54 40.97144 17.85614 36109 ft 439 kts 307°
2026-05-05 00:54 41.00743 17.79083 36107 ft 439 kts 307°
2026-05-05 00:55 41.04339 17.72543 36104 ft 439 kts 307°
2026-05-05 00:55 41.07936 17.65987 36103 ft 440 kts 307°
2026-05-05 00:56 41.11502 17.59473 36106 ft 440 kts 307°
2026-05-05 00:56 41.15097 17.52893 36105 ft 440 kts 306°
2026-05-05 00:57 41.18686 17.46309 36102 ft 441 kts 306°
2026-05-05 00:57 41.22254 17.39750 36103 ft 441 kts 306°
2026-05-05 00:58 41.25839 17.33146 36099 ft 441 kts 306°
2026-05-05 00:58 41.29425 17.26526 36099 ft 441 kts 306°
2026-05-05 00:59 41.33006 17.19900 36101 ft 442 kts 306°
2026-05-05 00:59 41.36590 17.13256 36100 ft 442 kts 306°
2026-05-05 01:00 41.40146 17.06647 36091 ft 442 kts 306°
2026-05-05 01:00 41.43724 16.99985 36091 ft 442 kts 306°
2026-05-05 01:01 41.47299 16.93313 36092 ft 442 kts 306°
2026-05-05 01:01 41.50873 16.86628 36091 ft 442 kts 306°
2026-05-05 01:02 41.54419 16.79981 36089 ft 443 kts 305°
2026-05-05 01:02 41.57987 16.73279 36086 ft 443 kts 305°
2026-05-05 01:03 41.61554 16.66563 36085 ft 443 kts 305°
2026-05-05 01:03 41.65114 16.59847 36085 ft 443 kts 305°
2026-05-05 01:04 41.68650 16.53160 36084 ft 443 kts 305°
2026-05-05 01:04 41.73985 16.43043 36082 ft 444 kts 305°
2026-05-05 01:05 41.77541 16.36283 36077 ft 444 kts 304°
2026-05-05 01:05 41.81093 16.29512 36074 ft 444 kts 304°
2026-05-05 01:06 41.84646 16.22726 36080 ft 444 kts 304°
2026-05-05 01:06 41.88170 16.15981 36090 ft 445 kts 304°
2026-05-05 01:07 41.91718 16.09174 36100 ft 445 kts 304°
2026-05-05 01:07 41.95260 16.02365 36115 ft 445 kts 304°
2026-05-05 01:08 41.98801 15.95539 36120 ft 445 kts 304°
2026-05-05 01:08 42.02285 15.88810 36121 ft 445 kts 304°
2026-05-05 01:09 42.05816 15.81975 36118 ft 445 kts 304°
2026-05-05 01:09 42.09351 15.75117 36090 ft 446 kts 304°
2026-05-05 01:10 42.12879 15.68256 36078 ft 445 kts 304°
2026-05-05 01:10 42.16404 15.61387 36070 ft 446 kts 303°
2026-05-05 01:11 42.19902 15.54554 36059 ft 446 kts 303°
2026-05-05 01:11 42.23419 15.47667 36057 ft 446 kts 303°
2026-05-05 01:12 42.26933 15.40772 36056 ft 446 kts 303°
2026-05-05 01:12 42.30448 15.33858 36053 ft 446 kts 303°
2026-05-05 01:13 42.33957 15.26941 36050 ft 446 kts 303°
2026-05-05 01:13 42.37443 15.20052 36047 ft 447 kts 303°
2026-05-05 01:14 42.40944 15.13118 36047 ft 447 kts 303°
2026-05-05 01:14 42.44446 15.06167 36049 ft 447 kts 303°
2026-05-05 01:15 42.47941 14.99212 36048 ft 447 kts 302°
2026-05-05 01:15 42.51412 14.92290 36044 ft 447 kts 302°
2026-05-05 01:16 42.54899 14.85321 36046 ft 447 kts 302°
2026-05-05 01:16 42.58383 14.78341 36047 ft 447 kts 302°
2026-05-05 01:17 42.61869 14.71338 36045 ft 447 kts 302°
2026-05-05 01:17 42.65349 14.64335 36046 ft 447 kts 302°
2026-05-05 01:18 42.68802 14.57367 36045 ft 447 kts 302°
2026-05-05 01:18 42.72272 14.50348 36047 ft 447 kts 302°
2026-05-05 01:19 42.75739 14.43322 36047 ft 447 kts 301°
2026-05-05 01:19 42.79202 14.36284 36046 ft 447 kts 301°
2026-05-05 01:20 42.82640 14.29283 36050 ft 447 kts 301°
2026-05-05 01:20 42.86093 14.22233 36049 ft 448 kts 301°
2026-05-05 01:21 42.89513 14.15234 36048 ft 448 kts 301°
2026-05-05 01:21 42.92962 14.08158 36049 ft 448 kts 301°
2026-05-05 01:22 42.96383 14.01123 36057 ft 448 kts 301°
2026-05-05 01:22 42.99820 13.94040 36037 ft 448 kts 301°
2026-05-05 01:23 43.03261 13.86931 36048 ft 448 kts 301°
2026-05-05 01:23 43.06696 13.79818 36065 ft 448 kts 301°
2026-05-05 01:24 43.10128 13.72693 36052 ft 448 kts 301°
2026-05-05 01:24 43.13532 13.65609 36059 ft 449 kts 300°
2026-05-05 01:25 43.16956 13.58467 36063 ft 449 kts 300°
2026-05-05 01:25 43.20380 13.51307 36060 ft 449 kts 300°
2026-05-05 01:26 43.23803 13.44133 36059 ft 450 kts 300°
2026-05-05 01:26 43.27294 13.37004 36061 ft 452 kts 304°
2026-05-05 01:27 43.31263 13.30369 36066 ft 453 kts 307°
2026-05-05 01:27 43.35348 13.23772 36057 ft 454 kts 307°
2026-05-05 01:28 43.39448 13.17172 36062 ft 454 kts 307°
2026-05-05 01:28 43.43543 13.10549 36061 ft 454 kts 307°
2026-05-05 01:29 43.47603 13.03955 36059 ft 455 kts 307°
2026-05-05 01:29 43.51687 12.97303 36058 ft 455 kts 306°
2026-05-05 01:30 43.55768 12.90641 36060 ft 455 kts 306°
2026-05-05 01:30 43.59847 12.83967 36061 ft 455 kts 306°
2026-05-05 01:31 43.63897 12.77326 36060 ft 455 kts 306°
2026-05-05 01:31 43.67967 12.70636 36057 ft 455 kts 306°
2026-05-05 01:32 43.72046 12.63918 36054 ft 456 kts 306°
2026-05-05 01:32 43.76119 12.57193 36052 ft 456 kts 306°
2026-05-05 01:33 43.80192 12.50452 36055 ft 457 kts 306°
2026-05-05 01:33 43.84243 12.43730 36054 ft 457 kts 306°
2026-05-05 01:34 43.88314 12.36961 36051 ft 457 kts 306°
2026-05-05 01:34 43.92378 12.30187 36055 ft 457 kts 306°
2026-05-05 01:35 43.96451 12.23383 36057 ft 458 kts 306°
2026-05-05 01:35 44.00518 12.16573 36039 ft 458 kts 306°
2026-05-05 01:36 44.04557 12.09791 36059 ft 459 kts 306°
2026-05-05 01:36 44.08624 12.02947 36043 ft 459 kts 306°
2026-05-05 01:37 44.12692 11.96085 36046 ft 460 kts 306°
2026-05-05 01:37 44.16762 11.89204 36050 ft 461 kts 306°
2026-05-05 01:38 44.20835 11.82300 36049 ft 461 kts 306°
2026-05-05 01:38 44.24882 11.75426 36049 ft 462 kts 306°
2026-05-05 01:39 44.28958 11.68485 36049 ft 462 kts 306°
2026-05-05 01:39 44.33031 11.61533 36042 ft 463 kts 306°
2026-05-05 01:40 44.37105 11.54563 36033 ft 463 kts 306°
2026-05-05 01:40 44.41149 11.47626 36030 ft 464 kts 306°
2026-05-05 01:41 44.45223 11.40620 36024 ft 464 kts 306°
2026-05-05 01:41 44.49293 11.33604 36020 ft 465 kts 306°
2026-05-05 01:42 44.53366 11.26566 36021 ft 465 kts 306°
2026-05-05 01:42 44.57414 11.19553 36022 ft 466 kts 306°
2026-05-05 01:43 44.61488 11.12480 36024 ft 466 kts 306°
2026-05-05 01:43 44.65563 11.05387 36023 ft 467 kts 306°
2026-05-05 01:44 44.69636 10.98280 36019 ft 467 kts 306°
2026-05-05 01:44 44.73708 10.91155 36017 ft 467 kts 306°
2026-05-05 01:45 44.77750 10.84066 36015 ft 468 kts 306°
2026-05-05 01:45 44.81819 10.76913 36012 ft 468 kts 305°
2026-05-05 01:46 44.85884 10.69748 36011 ft 468 kts 305°
2026-05-05 01:46 44.89951 10.62560 36009 ft 469 kts 305°
2026-05-05 01:47 44.93987 10.55412 36011 ft 469 kts 305°
2026-05-05 01:47 44.98046 10.48202 36010 ft 469 kts 305°
2026-05-05 01:48 45.02108 10.40970 36011 ft 470 kts 305°
2026-05-05 01:48 45.06161 10.33735 36007 ft 470 kts 305°
2026-05-05 01:49 45.10188 10.26529 36011 ft 470 kts 305°
2026-05-05 01:49 45.14245 10.19250 36013 ft 471 kts 305°
2026-05-05 01:50 45.18302 10.11953 36012 ft 471 kts 305°
2026-05-05 01:50 45.22353 10.04647 36013 ft 472 kts 304°
2026-05-05 01:51 45.26377 9.97371 36011 ft 472 kts 304°
2026-05-05 01:51 45.30429 9.90028 36011 ft 473 kts 304°
2026-05-05 01:52 45.34479 9.82666 36039 ft 473 kts 304°
2026-05-05 01:52 45.38529 9.75287 36077 ft 473 kts 304°
2026-05-05 01:53 45.42577 9.67893 36112 ft 474 kts 304°
2026-05-05 01:53 45.46592 9.60538 36147 ft 474 kts 304°
2026-05-05 01:54 45.50635 9.53114 36156 ft 474 kts 304°
2026-05-05 01:54 45.54675 9.45675 36159 ft 475 kts 304°
2026-05-05 01:55 45.58687 9.38268 36143 ft 475 kts 304°
2026-05-05 01:55 45.62723 9.30799 36109 ft 476 kts 304°
2026-05-05 01:56 45.66765 9.23296 36019 ft 476 kts 303°
2026-05-05 01:56 45.70130 9.17037 36006 ft 477 kts 303°
2026-05-05 01:57 45.74170 9.09503 36010 ft 478 kts 303°
2026-05-05 01:57 45.78864 9.00724 36014 ft 478 kts 303°
2026-05-05 01:58 45.82906 8.93142 36019 ft 479 kts 303°
2026-05-05 01:58 45.86265 8.86825 36021 ft 479 kts 303°
2026-05-05 01:59 45.90297 8.79224 36021 ft 480 kts 303°
2026-05-05 01:59 45.94999 8.70334 36020 ft 481 kts 303°
2026-05-05 02:00 45.99036 8.62680 36027 ft 481 kts 303°
2026-05-05 02:00 46.02396 8.56293 36031 ft 481 kts 303°
2026-05-05 02:01 46.06437 8.48592 36035 ft 482 kts 303°
2026-05-05 02:01 46.10476 8.40875 36046 ft 483 kts 303°
2026-05-05 02:02 46.14513 8.33137 36047 ft 483 kts 303°
2026-05-05 02:02 46.18516 8.25447 36037 ft 483 kts 303°
2026-05-05 02:03 46.22550 8.17680 36026 ft 483 kts 302°
2026-05-05 02:03 46.26572 8.09905 36024 ft 484 kts 302°
2026-05-05 02:04 46.30596 8.02104 35999 ft 484 kts 302°
2026-05-05 02:04 46.34578 7.94363 35989 ft 484 kts 302°
2026-05-05 02:05 46.38595 7.86538 35976 ft 484 kts 302°
2026-05-05 02:05 46.42600 7.78715 35962 ft 483 kts 302°
2026-05-05 02:06 46.46604 7.70871 35954 ft 484 kts 302°
2026-05-05 02:06 46.50572 7.63076 35948 ft 484 kts 302°
2026-05-05 02:07 46.54559 7.55219 35954 ft 484 kts 302°
2026-05-05 02:07 46.58550 7.47334 35935 ft 484 kts 302°
2026-05-05 02:08 46.62531 7.39446 35933 ft 484 kts 302°
2026-05-05 02:08 46.66477 7.31604 35941 ft 484 kts 302°
2026-05-05 02:09 46.70448 7.23690 35955 ft 484 kts 302°
2026-05-05 02:09 46.74410 7.15771 35961 ft 484 kts 302°
2026-05-05 02:10 46.78376 7.07824 35966 ft 484 kts 302°
2026-05-05 02:10 46.82335 6.99867 35969 ft 485 kts 302°
2026-05-05 02:11 46.86269 6.91940 35968 ft 485 kts 302°
2026-05-05 02:11 46.90224 6.83945 35967 ft 486 kts 302°
2026-05-05 02:12 46.96156 6.71910 35947 ft 486 kts 301°
2026-05-05 02:13 47.00107 6.63863 35943 ft 487 kts 301°
2026-05-05 02:13 47.04028 6.55857 35948 ft 487 kts 301°
2026-05-05 02:14 47.07979 6.47765 35950 ft 488 kts 301°
2026-05-05 02:14 47.11930 6.39650 35954 ft 489 kts 301°
2026-05-05 02:15 47.15878 6.31519 35958 ft 489 kts 301°
2026-05-05 02:15 47.19800 6.23416 35958 ft 490 kts 301°
2026-05-05 02:16 47.23743 6.15246 35953 ft 490 kts 301°
2026-05-05 02:16 47.27677 6.07073 35952 ft 490 kts 301°
2026-05-05 02:17 47.31611 5.98873 35949 ft 490 kts 300°
2026-05-05 02:17 47.35510 5.90721 35949 ft 490 kts 300°
2026-05-05 02:18 47.39430 5.82499 35950 ft 490 kts 300°
2026-05-05 02:18 47.43344 5.74268 35945 ft 491 kts 300°
2026-05-05 02:19 47.47261 5.66005 35941 ft 491 kts 300°
2026-05-05 02:19 47.51178 5.57717 35941 ft 491 kts 300°
2026-05-05 02:20 47.55055 5.49488 35940 ft 492 kts 300°
2026-05-05 02:20 47.58976 5.41143 35940 ft 493 kts 300°
2026-05-05 02:21 47.62882 5.32801 35935 ft 493 kts 300°
2026-05-05 02:21 47.66793 5.24426 35932 ft 494 kts 299°
2026-05-05 02:22 47.70702 5.16031 35914 ft 494 kts 299°
2026-05-05 02:22 47.74573 5.07689 35929 ft 495 kts 299°
2026-05-05 02:23 47.78476 4.99251 35933 ft 495 kts 299°
2026-05-05 02:23 47.82371 4.90806 35917 ft 495 kts 299°
2026-05-05 02:24 47.86235 4.82402 35914 ft 495 kts 299°
2026-05-05 02:24 47.90118 4.73932 35913 ft 495 kts 299°
2026-05-05 02:25 47.93999 4.65439 35911 ft 495 kts 299°
2026-05-05 02:25 47.97872 4.56936 35902 ft 495 kts 299°
2026-05-05 02:26 48.01737 4.48426 35900 ft 495 kts 299°
2026-05-05 02:26 48.05568 4.39964 35900 ft 495 kts 299°
2026-05-05 02:27 48.09424 4.31417 35898 ft 495 kts 299°
2026-05-05 02:27 48.13257 4.22896 35896 ft 495 kts 299°
2026-05-05 02:28 48.17100 4.14328 35893 ft 494 kts 299°
2026-05-05 02:28 48.20904 4.05820 35894 ft 494 kts 299°
2026-05-05 02:29 48.24626 3.97185 35891 ft 490 kts 294°
2026-05-05 02:29 48.27387 3.87906 35890 ft 486 kts 288°
2026-05-05 02:30 48.29883 3.78488 35890 ft 485 kts 287°
2026-05-05 02:30 48.32332 3.69043 35885 ft 485 kts 287°
2026-05-05 02:31 48.34768 3.59656 35890 ft 485 kts 287°
2026-05-05 02:31 48.37224 3.50203 35883 ft 485 kts 287°
2026-05-05 02:32 48.39678 3.40737 35891 ft 485 kts 287°
2026-05-05 02:32 48.42121 3.31269 35888 ft 485 kts 287°
2026-05-05 02:33 48.44540 3.21857 35884 ft 486 kts 287°
2026-05-05 02:33 48.46965 3.12379 35887 ft 486 kts 287°
2026-05-05 02:34 48.49396 3.02837 35891 ft 487 kts 286°
2026-05-05 02:34 48.51817 2.93293 35891 ft 487 kts 286°
2026-05-05 02:35 48.54232 2.83736 35876 ft 488 kts 286°
2026-05-05 02:35 48.56625 2.74225 35881 ft 488 kts 286°
2026-05-05 02:36 48.59027 2.64639 35886 ft 488 kts 286°
2026-05-05 02:36 48.61423 2.55035 35884 ft 489 kts 286°
2026-05-05 02:37 48.63816 2.45403 35911 ft 489 kts 286°
2026-05-05 02:37 48.66186 2.35819 35910 ft 490 kts 286°
2026-05-05 02:38 48.68563 2.26160 35911 ft 490 kts 286°
2026-05-05 02:38 48.70934 2.16487 35886 ft 490 kts 286°
2026-05-05 02:39 48.73296 2.06811 35884 ft 490 kts 286°
2026-05-05 02:39 48.75635 1.97188 35912 ft 490 kts 286°
2026-05-05 02:40 48.77981 1.87492 35908 ft 490 kts 286°
2026-05-05 02:40 48.80319 1.77783 35903 ft 490 kts 286°
2026-05-05 02:41 48.82650 1.68061 35901 ft 490 kts 286°
2026-05-05 02:41 48.84972 1.58341 35902 ft 490 kts 285°
2026-05-05 02:42 48.87272 1.48667 35903 ft 490 kts 285°
2026-05-05 02:42 48.89575 1.38937 35909 ft 490 kts 285°
2026-05-05 02:43 48.91876 1.29172 35908 ft 490 kts 285°
2026-05-05 02:43 48.94159 1.19442 35920 ft 491 kts 285°
2026-05-05 02:43 48.95308 1.14527 36135 ft 490 kts 285°
2026-05-05 02:44 48.96429 1.09719 36435 ft 488 kts 286°
2026-05-05 02:44 48.97563 1.04850 36674 ft 487 kts 286°
2026-05-05 02:44 48.98691 0.99989 36877 ft 488 kts 286°
2026-05-05 02:44 48.99818 0.95121 37103 ft 488 kts 286°
2026-05-05 02:45 49.00941 0.90263 37297 ft 488 kts 286°
2026-05-05 02:45 49.02068 0.85375 37478 ft 488 kts 287°
2026-05-05 02:45 49.03190 0.80497 37657 ft 489 kts 287°
2026-05-05 02:45 49.04313 0.75604 37833 ft 489 kts 287°
2026-05-05 02:46 49.05436 0.70701 37912 ft 491 kts 287°
2026-05-05 02:46 49.07680 0.60869 37918 ft 495 kts 287°
2026-05-05 02:47 49.09935 0.50949 37922 ft 495 kts 287°
2026-05-05 02:47 49.12179 0.41032 37924 ft 495 kts 287°
2026-05-05 02:48 49.14413 0.31105 37928 ft 495 kts 287°
2026-05-05 02:48 49.16627 0.21223 37932 ft 495 kts 287°
2026-05-05 02:49 49.18847 0.11261 37934 ft 495 kts 286°
2026-05-05 02:49 49.21059 0.01292 37936 ft 495 kts 286°
2026-05-05 02:50 49.23264 -0.08694 37936 ft 495 kts 286°
2026-05-05 02:50 49.25447 -0.18627 37935 ft 495 kts 286°
2026-05-05 02:51 49.27634 -0.28625 37940 ft 496 kts 286°
2026-05-05 02:51 49.29815 -0.38646 37941 ft 496 kts 286°
2026-05-05 02:52 49.31986 -0.48667 37938 ft 496 kts 286°
2026-05-05 02:52 49.34152 -0.58717 37941 ft 496 kts 286°
2026-05-05 02:53 49.36307 -0.68766 37929 ft 496 kts 286°
2026-05-05 02:53 49.38439 -0.78754 37947 ft 496 kts 286°
2026-05-05 02:54 49.40578 -0.88823 37945 ft 496 kts 286°
2026-05-05 02:54 49.42637 -0.98567 37945 ft 496 kts 286°
2026-05-05 02:55 49.44758 -1.08652 37954 ft 496 kts 286°
2026-05-05 02:55 49.46858 -1.18687 37960 ft 496 kts 286°
2026-05-05 02:56 49.48963 -1.28796 37964 ft 496 kts 286°
2026-05-05 02:56 49.51058 -1.38908 37966 ft 496 kts 286°
2026-05-05 02:57 49.53148 -1.49046 37969 ft 497 kts 286°
2026-05-05 02:57 49.55213 -1.59118 37969 ft 497 kts 286°
2026-05-05 02:58 49.57284 -1.69266 37964 ft 497 kts 286°
2026-05-05 02:58 49.59345 -1.79422 37967 ft 497 kts 286°
2026-05-05 02:59 49.61397 -1.89581 37970 ft 496 kts 285°
2026-05-05 02:59 49.63441 -1.99758 37970 ft 496 kts 285°
2026-05-05 03:00 49.65461 -2.09864 37973 ft 496 kts 285°
2026-05-05 03:00 49.67485 -2.20046 37971 ft 496 kts 285°
2026-05-05 03:01 49.69501 -2.30236 37970 ft 496 kts 285°
2026-05-05 03:01 49.71507 -2.40436 37971 ft 496 kts 285°
2026-05-05 03:02 49.73491 -2.50572 37970 ft 496 kts 285°
2026-05-05 03:02 49.75479 -2.60787 37973 ft 496 kts 285°
2026-05-05 03:03 49.77458 -2.71009 37978 ft 496 kts 285°
2026-05-05 03:03 49.79429 -2.81245 37978 ft 496 kts 285°
2026-05-05 03:04 49.81390 -2.91482 37977 ft 496 kts 285°
2026-05-05 03:04 49.83329 -3.01661 37976 ft 496 kts 285°
2026-05-05 03:05 49.85274 -3.11924 37976 ft 496 kts 285°
2026-05-05 03:05 49.87209 -3.22190 37979 ft 496 kts 285°
2026-05-05 03:06 49.89135 -3.32470 37979 ft 496 kts 285°
2026-05-05 03:06 49.91040 -3.42685 37981 ft 497 kts 285°
2026-05-05 03:07 49.92951 -3.52999 37981 ft 497 kts 285°
2026-05-05 03:07 49.94853 -3.63317 37987 ft 497 kts 285°
2026-05-05 03:08 49.96748 -3.73653 37982 ft 498 kts 285°
2026-05-05 03:08 49.98634 -3.84004 37985 ft 498 kts 285°
2026-05-05 03:09 50.00497 -3.94285 37984 ft 498 kts 285°
2026-05-05 03:09 50.02365 -4.04653 37989 ft 498 kts 285°
2026-05-05 03:10 50.04222 -4.15021 37990 ft 497 kts 285°
2026-05-05 03:10 50.06057 -4.25318 37989 ft 497 kts 285°
2026-05-05 03:11 50.07895 -4.35694 37990 ft 497 kts 285°
2026-05-05 03:11 50.09723 -4.46074 37992 ft 497 kts 285°
2026-05-05 03:12 50.11542 -4.56459 37992 ft 497 kts 285°
2026-05-05 03:12 50.13349 -4.66843 37996 ft 497 kts 285°
2026-05-05 03:13 50.15121 -4.77082 37998 ft 497 kts 285°
2026-05-05 03:13 50.16910 -4.87481 38000 ft 497 kts 285°
2026-05-05 03:14 50.18690 -4.97892 37999 ft 496 kts 285°
2026-05-05 03:14 50.20460 -5.08303 37997 ft 496 kts 285°
2026-05-05 03:15 50.22210 -5.18657 37994 ft 496 kts 285°
2026-05-05 03:15 50.23960 -5.29079 37997 ft 496 kts 285°
2026-05-05 03:16 50.25702 -5.39520 38000 ft 496 kts 285°
2026-05-05 03:16 50.27434 -5.49958 38007 ft 496 kts 285°
2026-05-05 03:17 50.29143 -5.60322 38009 ft 496 kts 285°
2026-05-05 03:17 50.30855 -5.70770 38016 ft 496 kts 285°
2026-05-05 03:18 50.32558 -5.81218 38020 ft 496 kts 285°
2026-05-05 03:18 50.34250 -5.91678 38021 ft 496 kts 285°
2026-05-05 03:19 50.36762 -6.07317 38026 ft 496 kts 285°
2026-05-05 03:19 50.38432 -6.17790 38029 ft 496 kts 285°
2026-05-05 03:20 50.40092 -6.28269 38032 ft 496 kts 285°
2026-05-05 03:20 50.41741 -6.38761 38029 ft 496 kts 285°
2026-05-05 03:21 50.43372 -6.49199 38038 ft 495 kts 285°
2026-05-05 03:21 50.45003 -6.59695 38040 ft 495 kts 285°
2026-05-05 03:22 50.46624 -6.70193 38042 ft 495 kts 285°
2026-05-05 03:22 50.48235 -6.80706 38043 ft 495 kts 285°
2026-05-05 03:23 50.49822 -6.91132 38046 ft 495 kts 285°
2026-05-05 03:23 50.51412 -7.01641 38048 ft 494 kts 285°
2026-05-05 03:24 50.52993 -7.12156 38050 ft 494 kts 285°
2026-05-05 03:24 50.54562 -7.22662 38056 ft 494 kts 284°
2026-05-05 03:25 50.56120 -7.33176 38057 ft 494 kts 284°
2026-05-05 03:25 50.57660 -7.43623 38060 ft 493 kts 284°
2026-05-05 03:26 50.59198 -7.54139 38053 ft 493 kts 284°
2026-05-05 03:26 50.60727 -7.64659 38061 ft 493 kts 284°
2026-05-05 03:27 50.62234 -7.75102 38064 ft 492 kts 284°
2026-05-05 03:27 50.63740 -7.85613 38061 ft 492 kts 284°
2026-05-05 03:28 50.65294 -7.96099 38062 ft 490 kts 288°
2026-05-05 03:28 50.68037 -8.05844 38071 ft 485 kts 301°
2026-05-05 03:29 50.71451 -8.15018 38071 ft 485 kts 303°
2026-05-05 03:29 50.74926 -8.24051 38072 ft 484 kts 303°
2026-05-05 03:30 50.78407 -8.33153 38080 ft 484 kts 303°
2026-05-05 03:30 50.81861 -8.42275 38084 ft 483 kts 302°
2026-05-05 03:31 50.85273 -8.51342 38084 ft 482 kts 302°
2026-05-05 03:31 50.88694 -8.60467 38091 ft 482 kts 302°
2026-05-05 03:32 50.92105 -8.69597 38088 ft 481 kts 302°
2026-05-05 03:32 50.95504 -8.78723 38093 ft 480 kts 302°
2026-05-05 03:33 50.98890 -8.87850 38099 ft 480 kts 302°
2026-05-05 03:33 51.02248 -8.96930 38102 ft 480 kts 302°
2026-05-05 03:34 51.05616 -9.06072 38099 ft 479 kts 302°
2026-05-05 03:34 51.08976 -9.15225 38101 ft 479 kts 302°
2026-05-05 03:35 51.12326 -9.24382 38103 ft 478 kts 302°
2026-05-05 03:35 51.15642 -9.33480 38105 ft 478 kts 302°
2026-05-05 03:36 51.18972 -9.42647 38108 ft 478 kts 302°
2026-05-05 03:36 51.22295 -9.51830 38110 ft 478 kts 302°
2026-05-05 03:37 51.25612 -9.61028 38107 ft 478 kts 301°
2026-05-05 03:37 51.28899 -9.70177 38124 ft 478 kts 301°
2026-05-05 03:38 51.32203 -9.79407 38108 ft 479 kts 301°
2026-05-05 03:38 51.35505 -9.88665 38105 ft 479 kts 301°
2026-05-05 03:39 51.38797 -9.97929 38128 ft 479 kts 301°
2026-05-05 03:39 51.42058 -10.07138 38124 ft 479 kts 301°
2026-05-05 03:40 51.45333 -10.16423 38110 ft 479 kts 301°
2026-05-05 03:40 51.48604 -10.25728 38132 ft 479 kts 300°
2026-05-05 03:41 51.51864 -10.35036 38114 ft 479 kts 300°
2026-05-05 03:41 51.55097 -10.44302 38130 ft 478 kts 300°
2026-05-05 03:42 51.58337 -10.53624 38135 ft 478 kts 300°
2026-05-05 03:42 51.61566 -10.62947 38136 ft 477 kts 300°
2026-05-05 03:43 51.64783 -10.72269 38135 ft 476 kts 300°
2026-05-05 03:43 51.67964 -10.81523 38136 ft 475 kts 300°
2026-05-05 03:44 51.71153 -10.90837 38140 ft 474 kts 300°
2026-05-05 03:44 51.74332 -11.00151 38141 ft 474 kts 300°
2026-05-05 03:45 51.77507 -11.09487 38145 ft 474 kts 300°
2026-05-05 03:45 51.80655 -11.18782 38146 ft 474 kts 299°
2026-05-05 03:46 51.83815 -11.28148 38147 ft 474 kts 299°
2026-05-05 03:46 51.86965 -11.37517 38143 ft 474 kts 299°
2026-05-05 03:47 51.90109 -11.46905 38145 ft 474 kts 299°
2026-05-05 03:47 51.93224 -11.56241 38152 ft 474 kts 299°
2026-05-05 03:48 51.96354 -11.65659 38149 ft 474 kts 299°
2026-05-05 03:48 51.99473 -11.75078 38152 ft 474 kts 299°
2026-05-05 03:49 52.02585 -11.84510 38152 ft 474 kts 298°
2026-05-05 03:49 52.05667 -11.93890 38157 ft 474 kts 298°
2026-05-05 03:50 52.08760 -12.03340 38162 ft 473 kts 298°
2026-05-05 03:50 52.11840 -12.12786 38162 ft 473 kts 298°
2026-05-05 03:51 52.14916 -12.22254 38160 ft 473 kts 298°
2026-05-05 03:51 52.17979 -12.31719 38164 ft 472 kts 298°
2026-05-05 03:52 52.21013 -12.41129 38163 ft 472 kts 298°
2026-05-05 03:52 52.24057 -12.50608 38169 ft 472 kts 298°
2026-05-05 03:53 52.27096 -12.60108 38170 ft 472 kts 298°
2026-05-05 03:53 52.30122 -12.69605 38169 ft 472 kts 298°
2026-05-05 03:54 52.33122 -12.79056 38168 ft 471 kts 298°
2026-05-05 03:54 52.36133 -12.88579 38170 ft 472 kts 297°
2026-05-05 03:55 52.39137 -12.98115 38175 ft 472 kts 297°
2026-05-05 03:55 52.42135 -13.07673 38179 ft 472 kts 297°
2026-05-05 03:56 52.45106 -13.17178 38181 ft 471 kts 297°
2026-05-05 03:56 52.48085 -13.26748 38184 ft 471 kts 297°
2026-05-05 03:57 52.51057 -13.36333 38187 ft 471 kts 297°
2026-05-05 03:57 52.54021 -13.45933 38187 ft 471 kts 297°
2026-05-05 03:58 52.56956 -13.55471 38180 ft 471 kts 297°
2026-05-05 03:58 52.59903 -13.65091 38186 ft 471 kts 297°
2026-05-05 03:59 52.62840 -13.74716 38186 ft 471 kts 297°
2026-05-05 03:59 52.65769 -13.84353 38194 ft 470 kts 297°
2026-05-05 04:00 52.68689 -13.93997 38193 ft 470 kts 296°
2026-05-05 04:00 52.71578 -14.03579 38197 ft 470 kts 296°
2026-05-05 04:01 52.74480 -14.13243 38199 ft 470 kts 296°
2026-05-05 04:01 52.77372 -14.22913 38198 ft 470 kts 296°
2026-05-05 04:02 52.80257 -14.32597 38197 ft 470 kts 296°
2026-05-05 04:02 52.83113 -14.42229 38196 ft 470 kts 296°
2026-05-05 04:03 52.85981 -14.51939 38204 ft 469 kts 296°
2026-05-05 04:03 52.88841 -14.61654 38206 ft 469 kts 296°
2026-05-05 04:04 52.91674 -14.71318 38209 ft 469 kts 296°
2026-05-05 04:04 52.94516 -14.81054 38206 ft 469 kts 296°
2026-05-05 04:05 52.97351 -14.90808 38209 ft 469 kts 296°
2026-05-05 04:05 53.00098 -15.00630 38206 ft 469 kts 291°
2026-05-05 04:06 53.02449 -15.10747 38212 ft 470 kts 291°
2026-05-05 04:06 53.04714 -15.20844 38204 ft 470 kts 291°
2026-05-05 04:07 53.06976 -15.31027 38215 ft 470 kts 290°
2026-05-05 04:07 53.09235 -15.41216 38215 ft 469 kts 290°
2026-05-05 04:08 53.11489 -15.51415 38220 ft 469 kts 290°
2026-05-05 04:08 53.13718 -15.61546 38220 ft 470 kts 290°
2026-05-05 04:09 53.15957 -15.71774 38221 ft 470 kts 290°
2026-05-05 04:09 53.18184 -15.82000 38222 ft 470 kts 290°
2026-05-05 04:10 53.20405 -15.92247 38226 ft 470 kts 290°
2026-05-05 04:10 53.22600 -16.02429 38226 ft 470 kts 290°
2026-05-05 04:11 53.24804 -16.12697 38229 ft 470 kts 290°
2026-05-05 04:11 53.26999 -16.22980 38227 ft 470 kts 290°
2026-05-05 04:12 53.29184 -16.33265 38229 ft 470 kts 290°
2026-05-05 04:12 53.31347 -16.43500 38232 ft 470 kts 290°
2026-05-05 04:13 53.33516 -16.53817 38235 ft 470 kts 290°
2026-05-05 04:13 53.35676 -16.64139 38237 ft 470 kts 290°
2026-05-05 04:14 53.37827 -16.74476 38236 ft 470 kts 289°
2026-05-05 04:14 53.39951 -16.84734 38236 ft 470 kts 289°
2026-05-05 04:15 53.42085 -16.95094 38238 ft 470 kts 289°
2026-05-05 04:15 53.44209 -17.05463 38238 ft 470 kts 289°
2026-05-05 04:16 53.46324 -17.15835 38241 ft 470 kts 289°
2026-05-05 04:16 53.48417 -17.26158 38243 ft 470 kts 289°
2026-05-05 04:17 53.50515 -17.36558 38240 ft 470 kts 289°
2026-05-05 04:17 53.52603 -17.46964 38243 ft 470 kts 289°
2026-05-05 04:18 53.54681 -17.57379 38241 ft 470 kts 289°
2026-05-05 04:18 53.56750 -17.67802 38245 ft 470 kts 289°
2026-05-05 04:19 53.58795 -17.78158 38249 ft 470 kts 289°
2026-05-05 04:19 53.60845 -17.88597 38256 ft 470 kts 289°
2026-05-05 04:20 53.62887 -17.99049 38253 ft 470 kts 289°
2026-05-05 04:20 53.64905 -18.09438 38254 ft 470 kts 288°
2026-05-05 04:21 53.66928 -18.19906 38255 ft 469 kts 288°
2026-05-05 04:21 53.68941 -18.30380 38257 ft 470 kts 288°
2026-05-05 04:22 53.70945 -18.40866 38260 ft 470 kts 288°
2026-05-05 04:22 53.72940 -18.51364 38259 ft 469 kts 288°
2026-05-05 04:23 53.74911 -18.61793 38262 ft 469 kts 288°
2026-05-05 04:23 53.76888 -18.72310 38268 ft 469 kts 288°
2026-05-05 04:24 53.78854 -18.82829 38260 ft 469 kts 288°
2026-05-05 04:25 53.81785 -18.98621 38265 ft 469 kts 288°
2026-05-05 04:25 53.83715 -19.09098 38260 ft 469 kts 288°
2026-05-05 04:26 53.85648 -19.19645 38272 ft 469 kts 287°
2026-05-05 04:26 53.87574 -19.30218 38260 ft 469 kts 287°
2026-05-05 04:27 53.89489 -19.40788 38273 ft 469 kts 287°
2026-05-05 04:27 53.91382 -19.51297 38275 ft 469 kts 287°
2026-05-05 04:28 53.93278 -19.61884 38278 ft 469 kts 287°
2026-05-05 04:28 53.95164 -19.72478 38276 ft 469 kts 287°
2026-05-05 04:29 53.97041 -19.83082 38280 ft 469 kts 287°
2026-05-05 04:29 53.98897 -19.93626 38280 ft 469 kts 287°
2026-05-05 04:30 54.00155 -20.04483 38281 ft 469 kts 276°
2026-05-05 04:30 54.00691 -20.15546 38286 ft 470 kts 275°
2026-05-05 04:31 54.01114 -20.26631 38282 ft 470 kts 274°
2026-05-05 04:31 54.01522 -20.37648 38284 ft 470 kts 274°
2026-05-05 04:32 54.01936 -20.48732 38287 ft 470 kts 274°
2026-05-05 04:32 54.02347 -20.59828 38291 ft 470 kts 274°
2026-05-05 04:33 54.02750 -20.70933 38291 ft 470 kts 274°
2026-05-05 04:33 54.03141 -20.82037 38290 ft 470 kts 274°
2026-05-05 04:34 54.03519 -20.93069 38294 ft 470 kts 274°
2026-05-05 04:34 54.03889 -21.04179 38295 ft 470 kts 274°
2026-05-05 04:35 54.04250 -21.15296 38299 ft 470 kts 274°
2026-05-05 04:35 54.04600 -21.26410 38297 ft 470 kts 274°
2026-05-05 04:36 54.04937 -21.37436 38294 ft 470 kts 274°
2026-05-05 04:36 54.05267 -21.48570 38296 ft 470 kts 273°
2026-05-05 04:37 54.05586 -21.59688 38394 ft 471 kts 273°
2026-05-05 04:37 54.05896 -21.70811 38296 ft 470 kts 273°
2026-05-05 04:38 54.06193 -21.81860 38300 ft 471 kts 273°
2026-05-05 04:38 54.06482 -21.92988 38301 ft 471 kts 273°
2026-05-05 04:39 54.06760 -22.04122 38299 ft 471 kts 273°
2026-05-05 04:39 54.07028 -22.15251 38302 ft 471 kts 273°
2026-05-05 04:40 54.07284 -22.26312 38309 ft 471 kts 273°
2026-05-05 04:40 54.07532 -22.37455 38307 ft 471 kts 273°
2026-05-05 04:41 54.07770 -22.48596 38305 ft 471 kts 273°
2026-05-05 04:41 54.07997 -22.59735 38305 ft 471 kts 272°
2026-05-05 04:42 54.08213 -22.70808 38309 ft 471 kts 272°
2026-05-05 04:42 54.08419 -22.81963 38308 ft 471 kts 272°
2026-05-05 04:43 54.08616 -22.93103 38311 ft 471 kts 272°
2026-05-05 04:43 54.08802 -23.04249 38311 ft 471 kts 272°
2026-05-05 04:44 54.08977 -23.15338 38310 ft 471 kts 272°
2026-05-05 04:44 54.09142 -23.26493 38307 ft 471 kts 272°
2026-05-05 04:45 54.09298 -23.37653 38311 ft 471 kts 272°
2026-05-05 04:45 54.09443 -23.48826 38310 ft 471 kts 272°
2026-05-05 04:46 54.09577 -23.59916 38314 ft 472 kts 272°
2026-05-05 04:46 54.09701 -23.71087 38317 ft 472 kts 272°
2026-05-05 04:47 54.09815 -23.82257 38313 ft 472 kts 272°
2026-05-05 04:47 54.09919 -23.93432 38317 ft 472 kts 272°
2026-05-05 04:48 54.10013 -24.04602 38322 ft 472 kts 272°
2026-05-05 04:48 54.10083 -24.13897 38318 ft 472 kts 272°
2026-05-05 04:49 54.10168 -24.26895 38316 ft 472 kts 272°
2026-05-05 04:49 54.10231 -24.38068 38316 ft 472 kts 272°
2026-05-05 04:50 54.10275 -24.47368 38325 ft 472 kts 272°
2026-05-05 04:50 54.10319 -24.58541 38321 ft 472 kts 271°
2026-05-05 04:51 54.10352 -24.69737 38321 ft 472 kts 271°
2026-05-05 04:51 54.10375 -24.80935 38324 ft 472 kts 271°
2026-05-05 04:52 54.10387 -24.92055 38323 ft 472 kts 271°
2026-05-05 04:52 54.10389 -25.03250 38328 ft 473 kts 271°
2026-05-05 04:53 54.10381 -25.14443 38322 ft 473 kts 271°
2026-05-05 04:53 54.10362 -25.25652 38334 ft 473 kts 271°
2026-05-05 04:54 54.10333 -25.36851 38319 ft 473 kts 271°
2026-05-05 04:54 54.10294 -25.47980 38324 ft 473 kts 271°
2026-05-05 04:55 54.10244 -25.59178 38320 ft 473 kts 271°
2026-05-05 04:55 54.10183 -25.70389 38334 ft 473 kts 271°
2026-05-05 04:56 54.10113 -25.81592 38334 ft 473 kts 271°
2026-05-05 04:56 54.10032 -25.92716 38331 ft 473 kts 271°
2026-05-05 04:57 54.09941 -26.03926 38329 ft 473 kts 271°
2026-05-05 04:57 54.09839 -26.15127 38330 ft 473 kts 271°
2026-05-05 04:58 54.09727 -26.26325 38336 ft 473 kts 271°
2026-05-05 04:58 54.09605 -26.37450 38333 ft 473 kts 271°
2026-05-05 04:59 54.09472 -26.48644 38335 ft 473 kts 271°
2026-05-05 04:59 54.09329 -26.59830 38341 ft 472 kts 271°
2026-05-05 05:00 54.09175 -26.71017 38342 ft 472 kts 271°
2026-05-05 05:00 54.09011 -26.82201 38341 ft 472 kts 271°
2026-05-05 05:01 54.08839 -26.93306 38341 ft 472 kts 271°
2026-05-05 05:01 54.08654 -27.04472 38343 ft 472 kts 270°
2026-05-05 05:02 54.08460 -27.15644 38341 ft 472 kts 270°
2026-05-05 05:02 54.08255 -27.26798 38341 ft 471 kts 270°
2026-05-05 05:03 54.08040 -27.37956 38347 ft 471 kts 270°
2026-05-05 05:03 54.07816 -27.49012 38356 ft 471 kts 270°
2026-05-05 05:04 54.07581 -27.60152 38354 ft 471 kts 270°
2026-05-05 05:04 54.07336 -27.71284 38359 ft 471 kts 270°
2026-05-05 05:05 54.07080 -27.82423 38361 ft 471 kts 270°
2026-05-05 05:05 54.06816 -27.93474 38361 ft 470 kts 270°
2026-05-05 05:06 54.06539 -28.04600 38357 ft 470 kts 270°
2026-05-05 05:06 54.06253 -28.15716 38359 ft 470 kts 270°
2026-05-05 05:07 54.05957 -28.26827 38357 ft 470 kts 270°
2026-05-05 05:07 54.05652 -28.37875 38361 ft 470 kts 270°
2026-05-05 05:08 54.05335 -28.48994 38366 ft 470 kts 270°
2026-05-05 05:08 54.05008 -28.60106 38366 ft 470 kts 270°
2026-05-05 05:09 54.04671 -28.71210 38368 ft 470 kts 270°
2026-05-05 05:09 54.04325 -28.82259 38368 ft 470 kts 270°
2026-05-05 05:10 54.03967 -28.93366 38368 ft 471 kts 269°
2026-05-05 05:10 54.03599 -29.04481 38370 ft 471 kts 269°
2026-05-05 05:11 54.03220 -29.15601 38369 ft 471 kts 269°
2026-05-05 05:11 54.02830 -29.26721 38370 ft 471 kts 269°
2026-05-05 05:12 54.02433 -29.37766 38369 ft 471 kts 269°
2026-05-05 05:12 54.02024 -29.48883 38373 ft 471 kts 269°
2026-05-05 05:13 54.01603 -29.60005 38369 ft 471 kts 269°
2026-05-05 05:13 54.01173 -29.71124 38373 ft 471 kts 269°
2026-05-05 05:14 54.00732 -29.82240 38368 ft 471 kts 269°
2026-05-05 05:14 54.00284 -29.93290 38369 ft 471 kts 269°
2026-05-05 05:15 54.00209 -30.04367 38371 ft 468 kts 276°
2026-05-05 05:15 54.00605 -30.15419 38371 ft 468 kts 277°
2026-05-05 05:16 54.01061 -30.26458 38373 ft 468 kts 277°
2026-05-05 05:16 54.01502 -30.37419 38369 ft 468 kts 277°
2026-05-05 05:17 54.01927 -30.48457 38382 ft 468 kts 277°
2026-05-05 05:17 54.02336 -30.59508 38369 ft 468 kts 276°
2026-05-05 05:18 54.02735 -30.70563 38380 ft 468 kts 276°
2026-05-05 05:18 54.03122 -30.81548 38377 ft 468 kts 276°
2026-05-05 05:19 54.03501 -30.92606 38364 ft 468 kts 276°
2026-05-05 05:19 54.03870 -31.03654 38374 ft 468 kts 276°
2026-05-05 05:20 54.04229 -31.14716 38369 ft 468 kts 276°
2026-05-05 05:20 54.04578 -31.25777 38369 ft 468 kts 276°
2026-05-05 05:21 54.04914 -31.36755 38369 ft 468 kts 276°
2026-05-05 05:21 54.05242 -31.47805 38366 ft 467 kts 276°
2026-05-05 05:22 54.05560 -31.58852 38368 ft 467 kts 276°
2026-05-05 05:22 54.05868 -31.69891 38365 ft 467 kts 276°
2026-05-05 05:23 54.06163 -31.80843 38365 ft 466 kts 276°
2026-05-05 05:23 54.06450 -31.91858 38369 ft 466 kts 276°
2026-05-05 05:24 54.06726 -32.02883 38359 ft 465 kts 276°
2026-05-05 05:24 54.06992 -32.13882 38357 ft 465 kts 276°
2026-05-05 05:25 54.07248 -32.24873 38354 ft 464 kts 276°
2026-05-05 05:25 54.07492 -32.35770 38354 ft 464 kts 275°
2026-05-05 05:26 54.07727 -32.46736 38363 ft 463 kts 275°
2026-05-05 05:26 54.07952 -32.57670 38352 ft 462 kts 275°
2026-05-05 05:27 54.08167 -32.68603 38355 ft 461 kts 275°
2026-05-05 05:27 54.08468 -32.84894 38354 ft 460 kts 275°
2026-05-05 05:28 54.08658 -32.95777 38351 ft 460 kts 275°
2026-05-05 05:28 54.08837 -33.06656 38350 ft 459 kts 275°
2026-05-05 05:29 54.09006 -33.17519 38347 ft 458 kts 275°
2026-05-05 05:29 54.09164 -33.28281 38348 ft 458 kts 275°
2026-05-05 05:30 54.09314 -33.39123 38342 ft 457 kts 275°
2026-05-05 05:30 54.09453 -33.49935 38343 ft 456 kts 275°
2026-05-05 05:31 54.09583 -33.60737 38344 ft 456 kts 274°
2026-05-05 05:31 54.09703 -33.71538 38338 ft 456 kts 274°
2026-05-05 05:32 54.09812 -33.82255 38338 ft 455 kts 274°
2026-05-05 05:32 54.09913 -33.93027 38334 ft 455 kts 274°
2026-05-05 05:33 54.10003 -34.03790 38322 ft 454 kts 274°
2026-05-05 05:33 54.10085 -34.14537 38325 ft 454 kts 274°
2026-05-05 05:34 54.10156 -34.25218 38319 ft 453 kts 274°
2026-05-05 05:34 54.10218 -34.35955 38319 ft 453 kts 274°
2026-05-05 05:35 54.10270 -34.46662 38318 ft 452 kts 274°
2026-05-05 05:35 54.10312 -34.57392 38315 ft 452 kts 273°
2026-05-05 05:36 54.10345 -34.68086 38313 ft 451 kts 273°
2026-05-05 05:36 54.10369 -34.78710 38312 ft 451 kts 273°
2026-05-05 05:37 54.10383 -34.89386 38308 ft 451 kts 273°
2026-05-05 05:37 54.10388 -35.00064 38305 ft 450 kts 272°
2026-05-05 05:38 54.10383 -35.10727 38302 ft 450 kts 272°
2026-05-05 05:38 54.10369 -35.21331 38293 ft 451 kts 272°
2026-05-05 05:39 54.10346 -35.32012 38295 ft 451 kts 272°
2026-05-05 05:39 54.10313 -35.42713 38302 ft 452 kts 272°
2026-05-05 05:40 54.10270 -35.53432 38290 ft 452 kts 271°
2026-05-05 05:40 54.10218 -35.64078 38288 ft 453 kts 271°
2026-05-05 05:41 54.10157 -35.74819 38291 ft 453 kts 271°
2026-05-05 05:41 54.10086 -35.85554 38286 ft 454 kts 271°
2026-05-05 05:42 54.10005 -35.96319 38270 ft 455 kts 270°
2026-05-05 05:42 54.09913 -36.07103 38272 ft 455 kts 270°
2026-05-05 05:43 54.09814 -36.17810 38273 ft 456 kts 270°
2026-05-05 05:43 54.09703 -36.28622 38270 ft 457 kts 270°
2026-05-05 05:44 54.09583 -36.39449 38266 ft 458 kts 269°
2026-05-05 05:44 54.09452 -36.50300 38262 ft 458 kts 269°
2026-05-05 05:45 54.09313 -36.61076 38256 ft 458 kts 269°
2026-05-05 05:45 54.09163 -36.71919 38250 ft 458 kts 269°
2026-05-05 05:46 54.09004 -36.82751 38248 ft 458 kts 268°
2026-05-05 05:46 54.08835 -36.93590 38243 ft 457 kts 268°
2026-05-05 05:47 54.08656 -37.04426 38245 ft 457 kts 268°
2026-05-05 05:47 54.08468 -37.15181 38229 ft 457 kts 267°
2026-05-05 05:48 54.08270 -37.25998 38237 ft 457 kts 267°
2026-05-05 05:48 54.08063 -37.36823 38223 ft 458 kts 267°
2026-05-05 05:49 54.07845 -37.47652 38217 ft 458 kts 266°
2026-05-05 05:49 54.07619 -37.58421 38220 ft 458 kts 266°
2026-05-05 05:50 54.07382 -37.69259 38204 ft 459 kts 266°
2026-05-05 05:50 54.07134 -37.80119 38202 ft 459 kts 265°
2026-05-05 05:51 54.06877 -37.90984 38193 ft 460 kts 265°
2026-05-05 05:51 54.06611 -38.01783 38196 ft 461 kts 265°
2026-05-05 05:52 54.06333 -38.12688 38192 ft 461 kts 265°
2026-05-05 05:52 54.06044 -38.23624 38183 ft 463 kts 264°
2026-05-05 05:53 54.05744 -38.34575 38177 ft 464 kts 264°
2026-05-05 05:53 54.05434 -38.45549 38169 ft 465 kts 264°
2026-05-05 05:54 54.05116 -38.56488 38167 ft 466 kts 264°
2026-05-05 05:54 54.04784 -38.67515 38157 ft 467 kts 264°
2026-05-05 05:55 54.04441 -38.78582 38151 ft 468 kts 263°
2026-05-05 05:55 54.04087 -38.89655 38150 ft 469 kts 263°
2026-05-05 05:56 54.03723 -39.00747 38143 ft 470 kts 263°
2026-05-05 05:56 54.03350 -39.11795 38133 ft 471 kts 263°
2026-05-05 05:57 54.02963 -39.22943 38125 ft 472 kts 263°
2026-05-05 05:57 54.02566 -39.34097 38120 ft 473 kts 262°
2026-05-05 05:58 54.02158 -39.45265 38111 ft 474 kts 262°
2026-05-05 05:58 54.01741 -39.56379 38110 ft 474 kts 262°
2026-05-05 05:59 54.01311 -39.67573 38098 ft 475 kts 262°
2026-05-05 05:59 54.00870 -39.78777 38089 ft 476 kts 261°
2026-05-05 06:00 54.00418 -39.90003 38083 ft 476 kts 261°
2026-05-05 06:00 53.99956 -40.01225 38073 ft 476 kts 261°
2026-05-05 06:01 53.99372 -40.12360 38063 ft 476 kts 259°
2026-05-05 06:01 53.98680 -40.23544 38046 ft 476 kts 259°
2026-05-05 06:02 53.97991 -40.34750 38051 ft 477 kts 259°
2026-05-05 06:02 53.97312 -40.45982 38033 ft 478 kts 259°
2026-05-05 06:03 53.96633 -40.57152 38030 ft 479 kts 258°
2026-05-05 06:03 53.95938 -40.68408 38025 ft 480 kts 258°
2026-05-05 06:04 53.95230 -40.79681 38018 ft 480 kts 258°
2026-05-05 06:04 53.94510 -40.90955 38013 ft 481 kts 258°
2026-05-05 06:05 53.93779 -41.02258 38001 ft 482 kts 258°
2026-05-05 06:05 53.93040 -41.13497 37998 ft 483 kts 258°
2026-05-05 06:06 53.92286 -41.24816 37985 ft 484 kts 258°
2026-05-05 06:06 53.91519 -41.36163 37995 ft 484 kts 258°
2026-05-05 06:07 53.90739 -41.47528 37980 ft 485 kts 258°
2026-05-05 06:07 53.89953 -41.58827 37971 ft 486 kts 258°
2026-05-05 06:08 53.89151 -41.70213 37968 ft 487 kts 258°
2026-05-05 06:08 53.88336 -41.81608 37964 ft 487 kts 257°
2026-05-05 06:09 53.87509 -41.93007 37960 ft 488 kts 257°
2026-05-05 06:09 53.86670 -42.04419 37959 ft 488 kts 257°
2026-05-05 06:10 53.85826 -42.15757 37954 ft 489 kts 257°
2026-05-05 06:10 53.84965 -42.27189 37946 ft 490 kts 257°
2026-05-05 06:11 53.84091 -42.38633 37942 ft 490 kts 257°
2026-05-05 06:11 53.83207 -42.50063 37936 ft 490 kts 257°
2026-05-05 06:12 53.82315 -42.61444 37933 ft 491 kts 257°
2026-05-05 06:12 53.81406 -42.72903 37930 ft 491 kts 257°
2026-05-05 06:13 53.80486 -42.84358 37925 ft 492 kts 257°
2026-05-05 06:13 53.79553 -42.95829 37923 ft 493 kts 257°
2026-05-05 06:14 53.78608 -43.07314 37924 ft 493 kts 257°
2026-05-05 06:14 53.77656 -43.18741 37915 ft 494 kts 257°
2026-05-05 06:15 53.76686 -43.30253 37917 ft 495 kts 257°
2026-05-05 06:15 53.75703 -43.41770 37909 ft 496 kts 256°
2026-05-05 06:16 53.74707 -43.53320 37898 ft 497 kts 256°
2026-05-05 06:16 53.73700 -43.64858 37898 ft 497 kts 256°
2026-05-05 06:17 53.72687 -43.76323 37899 ft 497 kts 256°
2026-05-05 06:17 53.71656 -43.87878 37898 ft 498 kts 256°
2026-05-05 06:18 53.70612 -43.99436 37890 ft 498 kts 256°
2026-05-05 06:18 53.69558 -44.10977 37884 ft 498 kts 256°
2026-05-05 06:19 53.68491 -44.22539 37887 ft 498 kts 256°
2026-05-05 06:19 53.67422 -44.33999 37885 ft 498 kts 256°
2026-05-05 06:20 53.66332 -44.45552 37874 ft 498 kts 256°
2026-05-05 06:20 53.65232 -44.57085 37873 ft 498 kts 256°
2026-05-05 06:21 53.64122 -44.68606 37872 ft 498 kts 256°
2026-05-05 06:21 53.63007 -44.80057 37865 ft 498 kts 256°
2026-05-05 06:22 53.61874 -44.91571 37855 ft 498 kts 256°
2026-05-05 06:22 53.60731 -45.03068 37857 ft 498 kts 256°
2026-05-05 06:23 53.59577 -45.14561 37856 ft 498 kts 256°
2026-05-05 06:23 53.58420 -45.25971 37847 ft 498 kts 255°
2026-05-05 06:24 53.57244 -45.37445 37839 ft 498 kts 255°
2026-05-05 06:24 53.56058 -45.48911 37835 ft 498 kts 255°
2026-05-05 06:25 53.54861 -45.60372 37836 ft 497 kts 255°
2026-05-05 06:25 53.53662 -45.71741 37824 ft 497 kts 255°
2026-05-05 06:26 53.52442 -45.83193 37819 ft 497 kts 255°
2026-05-05 06:26 53.51213 -45.94624 37812 ft 498 kts 255°
2026-05-05 06:27 53.49348 -46.11776 37799 ft 498 kts 255°
2026-05-05 06:28 53.48097 -46.23141 37793 ft 498 kts 255°
2026-05-05 06:28 53.46829 -46.34563 37791 ft 498 kts 255°
2026-05-05 06:29 53.45549 -46.45983 37784 ft 498 kts 255°
2026-05-05 06:29 53.44259 -46.57393 37776 ft 498 kts 255°
2026-05-05 06:30 53.42957 -46.68800 37770 ft 498 kts 255°
2026-05-05 06:30 53.41654 -46.80110 37762 ft 498 kts 255°
2026-05-05 06:31 53.40329 -46.91508 37756 ft 498 kts 254°
2026-05-05 06:31 53.38995 -47.02895 37752 ft 498 kts 254°
2026-05-05 06:32 53.37652 -47.14260 37746 ft 497 kts 254°
2026-05-05 06:32 53.36307 -47.25543 37734 ft 497 kts 254°
2026-05-05 06:33 53.34943 -47.36893 37734 ft 497 kts 254°
2026-05-05 06:33 53.33568 -47.48230 37713 ft 497 kts 254°
2026-05-05 06:34 53.32183 -47.59549 37714 ft 497 kts 254°
2026-05-05 06:34 53.30788 -47.70864 37707 ft 497 kts 254°
2026-05-05 06:35 53.29391 -47.82102 37703 ft 497 kts 253°
2026-05-05 06:35 53.27973 -47.93410 37694 ft 497 kts 253°
2026-05-05 06:36 53.26547 -48.04694 37686 ft 497 kts 253°
2026-05-05 06:36 53.25108 -48.15985 37680 ft 497 kts 253°
2026-05-05 06:37 53.23657 -48.27274 37675 ft 497 kts 253°
2026-05-05 06:37 53.22208 -48.38466 37667 ft 497 kts 253°
2026-05-05 06:38 53.20736 -48.49746 37655 ft 497 kts 253°
2026-05-05 06:38 53.19255 -48.61007 37653 ft 497 kts 253°
2026-05-05 06:39 53.17773 -48.72181 37652 ft 497 kts 253°
2026-05-05 06:39 53.16271 -48.83421 37642 ft 497 kts 253°
2026-05-05 06:40 53.14759 -48.94652 37632 ft 497 kts 253°
2026-05-05 06:40 53.13237 -49.05865 37618 ft 497 kts 253°
2026-05-05 06:41 53.11705 -49.17074 37616 ft 496 kts 253°
2026-05-05 06:41 53.10172 -49.28202 37614 ft 496 kts 253°
2026-05-05 06:42 53.08620 -49.39380 37599 ft 496 kts 253°
2026-05-05 06:42 53.07057 -49.50562 37593 ft 496 kts 252°
2026-05-05 06:43 53.05484 -49.61730 37585 ft 496 kts 252°
2026-05-05 06:43 53.03901 -49.72883 37579 ft 496 kts 252°
2026-05-05 06:44 53.02315 -49.83976 37572 ft 496 kts 252°
2026-05-05 06:44 53.00712 -49.95115 37564 ft 496 kts 252°
2026-05-05 06:45 52.98586 -50.05932 37557 ft 492 kts 245°
2026-05-05 06:45 52.96085 -50.16501 37556 ft 491 kts 244°
2026-05-05 06:46 52.93527 -50.27015 37548 ft 491 kts 244°
2026-05-05 06:46 52.90987 -50.37431 37540 ft 491 kts 244°
2026-05-05 06:47 52.88429 -50.47921 37539 ft 491 kts 244°
2026-05-05 06:47 52.85865 -50.58400 37531 ft 491 kts 244°
2026-05-05 06:48 52.83294 -50.68862 37527 ft 491 kts 244°
2026-05-05 06:48 52.80710 -50.79318 37519 ft 491 kts 244°
2026-05-05 06:49 52.78139 -50.89678 37516 ft 491 kts 244°
2026-05-05 06:49 52.75537 -51.00109 37509 ft 491 kts 244°
2026-05-05 06:50 52.72926 -51.10527 37507 ft 491 kts 244°
2026-05-05 06:50 52.70304 -51.20940 37502 ft 492 kts 244°
2026-05-05 06:51 52.67692 -51.31266 37496 ft 492 kts 244°
2026-05-05 06:51 52.65048 -51.41666 37488 ft 492 kts 244°
2026-05-05 06:52 52.62402 -51.52032 37486 ft 492 kts 244°
2026-05-05 06:52 52.59741 -51.62408 37469 ft 492 kts 244°
2026-05-05 06:53 52.57071 -51.72774 37468 ft 492 kts 244°
2026-05-05 06:53 52.54409 -51.83058 37464 ft 492 kts 244°
2026-05-05 06:54 52.51722 -51.93391 37459 ft 492 kts 244°
2026-05-05 06:54 52.49026 -52.03715 37454 ft 492 kts 244°
2026-05-05 06:55 52.46320 -52.14026 37450 ft 492 kts 244°
2026-05-05 06:55 52.43627 -52.24239 37443 ft 492 kts 244°
2026-05-05 06:56 52.40902 -52.34528 37441 ft 492 kts 244°
2026-05-05 06:56 52.38169 -52.44805 37436 ft 492 kts 244°
2026-05-05 06:57 52.35428 -52.55063 37430 ft 492 kts 243°
2026-05-05 06:57 52.32679 -52.65306 37425 ft 492 kts 243°
2026-05-05 06:58 52.29939 -52.75472 37423 ft 492 kts 243°
2026-05-05 06:58 52.27170 -52.85692 37417 ft 492 kts 243°
2026-05-05 06:59 52.24393 -52.95904 37413 ft 492 kts 243°
2026-05-05 06:59 52.21606 -53.06109 37407 ft 492 kts 243°
2026-05-05 07:00 52.18833 -53.16213 37406 ft 492 kts 243°
2026-05-05 07:00 52.16034 -53.26371 37402 ft 492 kts 243°
2026-05-05 07:01 52.13218 -53.36545 37397 ft 492 kts 243°
2026-05-05 07:01 52.10399 -53.46682 37394 ft 492 kts 243°
2026-05-05 07:02 52.07577 -53.56793 37393 ft 491 kts 243°
2026-05-05 07:02 52.04762 -53.66830 37388 ft 491 kts 243°
2026-05-05 07:03 52.01922 -53.76913 37381 ft 490 kts 243°
2026-05-05 07:03 51.99080 -53.86962 37382 ft 490 kts 243°
2026-05-05 07:04 51.96229 -53.97002 37377 ft 489 kts 243°
2026-05-05 07:04 51.93395 -54.06935 37375 ft 489 kts 243°
2026-05-05 07:05 51.90537 -54.16911 37368 ft 488 kts 243°
2026-05-05 07:05 51.87671 -54.26875 37366 ft 487 kts 243°
2026-05-05 07:06 51.84808 -54.36782 37370 ft 487 kts 243°
2026-05-05 07:06 51.81932 -54.46695 37371 ft 486 kts 243°
2026-05-05 07:07 51.79081 -54.56531 37371 ft 487 kts 244°
2026-05-05 07:07 51.76395 -54.66568 37358 ft 487 kts 245°
2026-05-05 07:08 51.73771 -54.76652 37359 ft 487 kts 245°
2026-05-05 07:08 51.71114 -54.86692 37353 ft 487 kts 244°
2026-05-05 07:09 51.68422 -54.96716 37354 ft 487 kts 244°
2026-05-05 07:09 51.65734 -55.06653 37350 ft 488 kts 244°
2026-05-05 07:10 51.63018 -55.16661 37345 ft 488 kts 244°
2026-05-05 07:10 51.60291 -55.26673 37334 ft 488 kts 244°
2026-05-05 07:11 51.57575 -55.36601 37334 ft 488 kts 244°
2026-05-05 07:11 51.54832 -55.46584 37336 ft 488 kts 244°
2026-05-05 07:12 51.52083 -55.56551 37324 ft 488 kts 244°
2026-05-05 07:12 51.49323 -55.66511 37312 ft 488 kts 244°
2026-05-05 07:13 51.46561 -55.76435 37310 ft 488 kts 244°
2026-05-05 07:13 51.43803 -55.86295 37311 ft 488 kts 244°
2026-05-05 07:14 51.41021 -55.96207 37308 ft 488 kts 244°
2026-05-05 07:14 51.38234 -56.06097 37310 ft 487 kts 244°
2026-05-05 07:15 51.35911 -56.14303 37307 ft 487 kts 245°
2026-05-05 07:15 51.32656 -56.25759 37308 ft 486 kts 245°
2026-05-05 07:16 51.29857 -56.35570 37305 ft 485 kts 244°
2026-05-05 07:16 51.27525 -56.43711 37303 ft 484 kts 244°
2026-05-05 07:17 51.24717 -56.53471 37301 ft 484 kts 244°
2026-05-05 07:17 51.21904 -56.63211 37300 ft 482 kts 244°
2026-05-05 07:18 51.19095 -56.72901 37298 ft 480 kts 244°
2026-05-05 07:18 51.16288 -56.82540 37300 ft 480 kts 244°
2026-05-05 07:19 51.13497 -56.92091 37296 ft 478 kts 244°
2026-05-05 07:19 51.10683 -57.01676 37300 ft 478 kts 244°
2026-05-05 07:20 51.07866 -57.11237 37302 ft 477 kts 244°
2026-05-05 07:20 51.05042 -57.20782 37308 ft 477 kts 243°
2026-05-05 07:21 51.02211 -57.30318 37317 ft 477 kts 243°
2026-05-05 07:21 50.99390 -57.39780 37328 ft 477 kts 243°
2026-05-05 07:22 50.96538 -57.49302 37337 ft 478 kts 243°
2026-05-05 07:22 50.93673 -57.58832 37349 ft 479 kts 244°
2026-05-05 07:23 50.90796 -57.68365 37359 ft 480 kts 244°
2026-05-05 07:23 50.87928 -57.77836 37375 ft 480 kts 244°
2026-05-05 07:24 50.85035 -57.87349 37385 ft 480 kts 244°
2026-05-05 07:24 50.82131 -57.96859 37395 ft 480 kts 244°
2026-05-05 07:25 50.79224 -58.06349 37400 ft 479 kts 244°
2026-05-05 07:25 50.76312 -58.15815 37409 ft 479 kts 244°
2026-05-05 07:26 50.73408 -58.25219 37407 ft 479 kts 244°
2026-05-05 07:26 50.70484 -58.34651 37407 ft 479 kts 244°
2026-05-05 07:27 50.67550 -58.44074 37409 ft 478 kts 244°
2026-05-05 07:27 50.64611 -58.53481 37413 ft 478 kts 244°
2026-05-05 07:28 50.61685 -58.62811 37412 ft 478 kts 244°
2026-05-05 07:28 50.58734 -58.72188 37411 ft 478 kts 244°
2026-05-05 07:29 50.55770 -58.81566 37414 ft 478 kts 244°
2026-05-05 07:29 50.52803 -58.90918 37414 ft 478 kts 244°
2026-05-05 07:30 50.49830 -59.00254 37414 ft 478 kts 244°
2026-05-05 07:30 50.45367 -59.14204 37418 ft 478 kts 244°
2026-05-05 07:31 50.42372 -59.23522 37420 ft 478 kts 243°
2026-05-05 07:31 50.39371 -59.32824 37423 ft 478 kts 243°
2026-05-05 07:32 50.36364 -59.42108 37423 ft 478 kts 243°
2026-05-05 07:32 50.33368 -59.51324 37429 ft 478 kts 243°
2026-05-05 07:33 50.30350 -59.60575 37434 ft 478 kts 243°
2026-05-05 07:33 50.27322 -59.69823 37448 ft 478 kts 243°
2026-05-05 07:34 50.24285 -59.79061 37454 ft 477 kts 243°
2026-05-05 07:34 50.21246 -59.88275 37464 ft 477 kts 243°
2026-05-05 07:35 50.18224 -59.97403 37475 ft 477 kts 243°
2026-05-05 07:35 50.15169 -60.06594 37479 ft 477 kts 243°
2026-05-05 07:36 50.12111 -60.15764 37489 ft 476 kts 243°
2026-05-05 07:36 50.09050 -60.24912 37496 ft 476 kts 243°
2026-05-05 07:37 50.05984 -60.34037 37503 ft 476 kts 243°
2026-05-05 07:37 50.02931 -60.43093 37512 ft 476 kts 243°
2026-05-05 07:38 49.99850 -60.52195 37522 ft 476 kts 243°
2026-05-05 07:38 49.96761 -60.61291 37524 ft 476 kts 243°
2026-05-05 07:39 49.93667 -60.70372 37532 ft 476 kts 243°
2026-05-05 07:39 49.90589 -60.79371 37537 ft 476 kts 243°
2026-05-05 07:40 49.87482 -60.88424 37537 ft 476 kts 243°
2026-05-05 07:40 49.84362 -60.97485 37544 ft 476 kts 243°
2026-05-05 07:41 49.81236 -61.06529 37548 ft 477 kts 243°
2026-05-05 07:41 49.78120 -61.15509 37551 ft 477 kts 243°
2026-05-05 07:42 49.74978 -61.24534 37558 ft 477 kts 243°
2026-05-05 07:42 49.71826 -61.33557 37560 ft 477 kts 243°
2026-05-05 07:43 49.68665 -61.42573 37569 ft 477 kts 243°
2026-05-05 07:43 49.65495 -61.51584 37573 ft 478 kts 243°
2026-05-05 07:44 49.62339 -61.60524 37578 ft 478 kts 243°
2026-05-05 07:44 49.59153 -61.69516 37584 ft 478 kts 243°
2026-05-05 07:45 49.55957 -61.78507 37591 ft 478 kts 242°
2026-05-05 07:45 49.52754 -61.87483 37593 ft 478 kts 242°
2026-05-05 07:46 49.49565 -61.96391 37596 ft 478 kts 242°
2026-05-05 07:46 49.46350 -62.05342 37601 ft 478 kts 242°
2026-05-05 07:47 49.43128 -62.14279 37606 ft 478 kts 242°
2026-05-05 07:47 49.39899 -62.23205 37617 ft 478 kts 242°
2026-05-05 07:48 49.36667 -62.32110 37620 ft 478 kts 242°
2026-05-05 07:48 49.33452 -62.40937 37624 ft 477 kts 242°
2026-05-05 07:49 49.30208 -62.49814 37627 ft 477 kts 242°
2026-05-05 07:49 49.26962 -62.58665 37631 ft 477 kts 242°
2026-05-05 07:50 49.23711 -62.67503 37641 ft 476 kts 242°
2026-05-05 07:50 49.20457 -62.76314 37636 ft 476 kts 242°
2026-05-05 07:51 49.17214 -62.85069 37647 ft 476 kts 242°
2026-05-05 07:51 49.13950 -62.93851 37656 ft 475 kts 242°
2026-05-05 07:52 49.10683 -63.02612 37645 ft 475 kts 242°
2026-05-05 07:52 49.07411 -63.11357 37644 ft 474 kts 242°
2026-05-05 07:53 49.04135 -63.20081 37660 ft 474 kts 242°
2026-05-05 07:53 49.00877 -63.28732 37663 ft 474 kts 242°
2026-05-05 07:54 48.97594 -63.37418 37665 ft 473 kts 242°
2026-05-05 07:54 48.94308 -63.46084 37671 ft 473 kts 242°
2026-05-05 07:55 48.91035 -63.54688 37672 ft 473 kts 242°
2026-05-05 07:55 48.87732 -63.63344 37858 ft 474 kts 242°
2026-05-05 07:56 48.86080 -63.67663 38183 ft 472 kts 242°
2026-05-05 07:56 48.84430 -63.71968 38449 ft 472 kts 241°
2026-05-05 07:56 48.82781 -63.76267 38637 ft 472 kts 241°
2026-05-05 07:56 48.81124 -63.80576 38820 ft 472 kts 241°
2026-05-05 07:57 48.79469 -63.84875 38988 ft 473 kts 241°
2026-05-05 07:57 48.77809 -63.89179 39160 ft 473 kts 241°
2026-05-05 07:57 48.76143 -63.93491 39328 ft 473 kts 241°
2026-05-05 07:57 48.74480 -63.97790 39496 ft 474 kts 241°
2026-05-05 07:58 48.72812 -64.02091 39648 ft 474 kts 241°
2026-05-05 07:58 48.71138 -64.06405 39691 ft 475 kts 241°
2026-05-05 07:58 48.67814 -64.14944 39694 ft 474 kts 241°
2026-05-05 07:59 48.64453 -64.23549 39692 ft 474 kts 240°
2026-05-05 07:59 48.61095 -64.32123 39693 ft 474 kts 240°
2026-05-05 08:00 48.57733 -64.40678 39695 ft 474 kts 240°
2026-05-05 08:00 48.54385 -64.49170 39698 ft 473 kts 240°
2026-05-05 08:01 48.51015 -64.57691 39705 ft 473 kts 240°
2026-05-05 08:01 48.47640 -64.66199 39712 ft 472 kts 240°
2026-05-05 08:02 48.44265 -64.74677 39719 ft 472 kts 240°
2026-05-05 08:02 48.40882 -64.83151 39725 ft 471 kts 240°
2026-05-05 08:03 48.37520 -64.91544 39731 ft 471 kts 240°
2026-05-05 08:03 48.34135 -64.99971 39740 ft 471 kts 240°
2026-05-05 08:04 48.30745 -65.08380 39740 ft 471 kts 240°
2026-05-05 08:04 48.27345 -65.16789 39739 ft 471 kts 240°
2026-05-05 08:05 48.23949 -65.25162 39736 ft 470 kts 240°
2026-05-05 08:05 48.20557 -65.33498 39740 ft 470 kts 240°
2026-05-05 08:06 48.17146 -65.41856 39741 ft 470 kts 240°
2026-05-05 08:06 48.13735 -65.50187 39742 ft 469 kts 240°
2026-05-05 08:07 48.10321 -65.58502 39742 ft 469 kts 240°
2026-05-05 08:07 48.06922 -65.66753 39757 ft 468 kts 240°
2026-05-05 08:08 48.03499 -65.75036 39758 ft 468 kts 240°
2026-05-05 08:08 48.00074 -65.83300 39764 ft 468 kts 240°
2026-05-05 08:09 47.96645 -65.91549 39764 ft 467 kts 240°
2026-05-05 08:09 47.93214 -65.99776 39765 ft 467 kts 240°
2026-05-05 08:10 47.89798 -66.07944 39769 ft 467 kts 240°
2026-05-05 08:10 47.87120 -66.14330 39766 ft 466 kts 240°
2026-05-05 08:11 47.83679 -66.22512 39777 ft 466 kts 240°
2026-05-05 08:11 47.80233 -66.30682 39775 ft 466 kts 240°
2026-05-05 08:12 47.76808 -66.38779 39773 ft 465 kts 240°
2026-05-05 08:12 47.73360 -66.46905 39777 ft 465 kts 239°
2026-05-05 08:13 47.69910 -66.55011 39783 ft 464 kts 239°
2026-05-05 08:13 47.66461 -66.63091 39788 ft 463 kts 239°
2026-05-05 08:14 47.63034 -66.71096 39790 ft 463 kts 239°
2026-05-05 08:14 47.59582 -66.79137 39795 ft 462 kts 239°
2026-05-05 08:15 47.56128 -66.87158 39798 ft 462 kts 239°
2026-05-05 08:15 47.52669 -66.95168 39799 ft 461 kts 239°
2026-05-05 08:16 47.49236 -67.03092 39800 ft 460 kts 239°
2026-05-05 08:16 47.45781 -67.11045 39801 ft 460 kts 239°
2026-05-05 08:17 47.42324 -67.18980 39803 ft 460 kts 239°
2026-05-05 08:17 47.38860 -67.26902 39805 ft 459 kts 239°
2026-05-05 08:18 47.34813 -67.34252 39805 ft 462 kts 230°
2026-05-05 08:18 47.30381 -67.41118 39806 ft 463 kts 229°
2026-05-05 08:19 47.25921 -67.47859 39806 ft 463 kts 229°
2026-05-05 08:19 47.21428 -67.54647 39801 ft 462 kts 229°
2026-05-05 08:20 47.16943 -67.61435 39804 ft 462 kts 229°
2026-05-05 08:20 47.12467 -67.68205 39799 ft 462 kts 229°
2026-05-05 08:21 47.07983 -67.74968 39793 ft 462 kts 229°
2026-05-05 08:21 47.03537 -67.81657 39794 ft 461 kts 229°
2026-05-05 08:22 46.99054 -67.88382 39786 ft 461 kts 229°
2026-05-05 08:22 46.94576 -67.95084 39786 ft 461 kts 229°
2026-05-05 08:23 46.90085 -68.01787 39785 ft 461 kts 229°
2026-05-05 08:23 46.85622 -68.08433 39785 ft 461 kts 229°
2026-05-05 08:24 46.81131 -68.15103 39791 ft 461 kts 229°
2026-05-05 08:24 46.76633 -68.21766 39808 ft 461 kts 229°
2026-05-05 08:25 46.72137 -68.28410 39804 ft 461 kts 229°
2026-05-05 08:25 46.67657 -68.35013 39804 ft 461 kts 229°
2026-05-05 08:26 46.63150 -68.41638 39805 ft 460 kts 229°
2026-05-05 08:26 46.58656 -68.48229 39798 ft 460 kts 229°
2026-05-05 08:27 46.54140 -68.54835 39795 ft 459 kts 229°
2026-05-05 08:27 46.49638 -68.61406 39795 ft 459 kts 229°
2026-05-05 08:28 46.45158 -68.67927 39810 ft 459 kts 229°
2026-05-05 08:28 46.40652 -68.74469 39806 ft 458 kts 229°
2026-05-05 08:29 46.36145 -68.80999 39794 ft 458 kts 229°
2026-05-05 08:30 46.29413 -68.90719 39804 ft 458 kts 229°
2026-05-05 08:30 46.24903 -68.97212 39809 ft 458 kts 229°
2026-05-05 08:31 46.20391 -69.03691 39810 ft 458 kts 229°
2026-05-05 08:31 46.15874 -69.10162 39808 ft 457 kts 229°
2026-05-05 08:32 46.11387 -69.16574 39810 ft 457 kts 229°
2026-05-05 08:32 46.06864 -69.23022 39811 ft 457 kts 229°
2026-05-05 08:33 46.02346 -69.29447 39806 ft 457 kts 229°
2026-05-05 08:33 45.97824 -69.35861 39800 ft 456 kts 229°
2026-05-05 08:34 45.93329 -69.42222 39800 ft 456 kts 229°
2026-05-05 08:34 45.88803 -69.48612 39799 ft 456 kts 229°
2026-05-05 08:35 45.84274 -69.54991 39799 ft 456 kts 229°
2026-05-05 08:35 45.79741 -69.61360 39793 ft 456 kts 229°
2026-05-05 08:36 45.75211 -69.67709 39798 ft 456 kts 229°
2026-05-05 08:36 45.70708 -69.74006 39797 ft 455 kts 229°
2026-05-05 08:37 45.66175 -69.80329 39797 ft 455 kts 229°
2026-05-05 08:37 45.61641 -69.86638 39793 ft 455 kts 229°
2026-05-05 08:38 45.57103 -69.92939 39797 ft 455 kts 229°
2026-05-05 08:38 45.52564 -69.99225 39810 ft 454 kts 229°
2026-05-05 08:39 45.48029 -70.05491 39805 ft 454 kts 229°
2026-05-05 08:39 45.43526 -70.11699 39801 ft 454 kts 229°
2026-05-05 08:40 45.38989 -70.17939 39807 ft 453 kts 228°
2026-05-05 08:40 45.34457 -70.24157 39806 ft 453 kts 228°
2026-05-05 08:41 45.29912 -70.30377 39806 ft 453 kts 228°
2026-05-05 08:41 45.25377 -70.36570 39802 ft 452 kts 228°
2026-05-05 08:42 45.20864 -70.42720 39818 ft 452 kts 228°
2026-05-05 08:42 45.16323 -70.48892 39818 ft 452 kts 228°
2026-05-05 08:43 45.11781 -70.55051 39817 ft 452 kts 228°
2026-05-05 08:43 45.07232 -70.61207 39822 ft 452 kts 228°
2026-05-05 08:44 45.02687 -70.67342 39827 ft 452 kts 228°
2026-05-05 08:44 44.98133 -70.73476 39828 ft 452 kts 228°
2026-05-05 08:45 44.93609 -70.79556 39831 ft 452 kts 228°
2026-05-05 08:45 44.89050 -70.85668 39832 ft 452 kts 228°
2026-05-05 08:46 44.84489 -70.91769 39838 ft 452 kts 228°
2026-05-05 08:46 44.79923 -70.97861 39834 ft 452 kts 228°
2026-05-05 08:47 44.75384 -71.03903 39829 ft 452 kts 228°
2026-05-05 08:47 44.70818 -71.09968 39827 ft 452 kts 228°
2026-05-05 08:48 44.66252 -71.16020 39821 ft 451 kts 228°
2026-05-05 08:48 44.61676 -71.22069 39827 ft 451 kts 227°
2026-05-05 08:49 44.57108 -71.28094 39821 ft 451 kts 227°
2026-05-05 08:49 44.52571 -71.34065 39825 ft 450 kts 227°
2026-05-05 08:50 44.47999 -71.40070 39825 ft 450 kts 227°
2026-05-05 08:50 44.43425 -71.46065 39824 ft 450 kts 227°
2026-05-05 08:51 44.38849 -71.52050 39822 ft 450 kts 227°
2026-05-05 08:51 44.34304 -71.57979 39820 ft 450 kts 227°
2026-05-05 08:52 44.29725 -71.63938 39820 ft 450 kts 227°
2026-05-05 08:52 44.25147 -71.69884 39821 ft 450 kts 227°
2026-05-05 08:53 44.20565 -71.75826 39818 ft 449 kts 227°
2026-05-05 08:53 44.16248 -71.82067 39816 ft 447 kts 231°
2026-05-05 08:54 44.12004 -71.88307 39812 ft 447 kts 230°
2026-05-05 08:54 44.07716 -71.94538 39812 ft 447 kts 230°
2026-05-05 08:55 44.03397 -72.00777 39808 ft 446 kts 230°
2026-05-05 08:55 43.99089 -72.06982 39813 ft 446 kts 230°
2026-05-05 08:56 43.94805 -72.13135 39810 ft 446 kts 230°
2026-05-05 08:56 43.90463 -72.19358 39821 ft 446 kts 230°
2026-05-05 08:57 43.86183 -72.25480 39822 ft 445 kts 230°
2026-05-05 08:57 43.81865 -72.31640 39820 ft 445 kts 230°
2026-05-05 08:58 43.77552 -72.37781 39828 ft 445 kts 230°
2026-05-05 08:58 43.73229 -72.43922 39828 ft 445 kts 230°
2026-05-05 08:59 43.68910 -72.50043 39826 ft 445 kts 230°
2026-05-05 08:59 43.64624 -72.56104 39824 ft 444 kts 229°
2026-05-05 09:00 43.60303 -72.62203 39818 ft 444 kts 229°
2026-05-05 09:00 43.55973 -72.68301 39815 ft 444 kts 229°
2026-05-05 09:01 43.51644 -72.74384 39815 ft 444 kts 229°
2026-05-05 09:01 43.47315 -72.80452 39815 ft 444 kts 229°
2026-05-05 09:02 43.43005 -72.86482 39813 ft 444 kts 229°
2026-05-05 09:02 43.38668 -72.92536 39816 ft 445 kts 229°
2026-05-05 09:03 43.34320 -72.98594 39803 ft 445 kts 229°
2026-05-05 09:03 43.29967 -73.04643 39805 ft 446 kts 229°
2026-05-05 09:04 43.25638 -73.10648 39806 ft 446 kts 229°
2026-05-05 09:04 43.21265 -73.16699 39807 ft 446 kts 229°
2026-05-05 09:05 43.16891 -73.22740 39814 ft 447 kts 229°
2026-05-05 09:05 43.12508 -73.28779 39811 ft 447 kts 229°
2026-05-05 09:06 43.08159 -73.34760 39819 ft 447 kts 229°
2026-05-05 09:06 43.03754 -73.40803 39826 ft 448 kts 229°
2026-05-05 09:07 42.99361 -73.46818 39822 ft 448 kts 229°
2026-05-05 09:08 42.90727 -73.58602 39813 ft 448 kts 229°
2026-05-05 09:08 42.86307 -73.64616 39812 ft 449 kts 229°
2026-05-05 09:09 42.81877 -73.70629 39812 ft 449 kts 229°
2026-05-05 09:09 42.77124 -73.76165 39812 ft 456 kts 217°
2026-05-05 09:10 42.71299 -73.79642 39812 ft 468 kts 199°
2026-05-05 09:10 42.64776 -73.80586 39813 ft 478 kts 185°
2026-05-05 09:11 42.58097 -73.80646 39813 ft 479 kts 185°
2026-05-05 09:11 42.51429 -73.80737 39815 ft 480 kts 185°
2026-05-05 09:12 42.44750 -73.80845 39821 ft 480 kts 185°
2026-05-05 09:12 42.38116 -73.80958 39823 ft 480 kts 185°
2026-05-05 09:13 42.31438 -73.81073 39829 ft 480 kts 185°
2026-05-05 09:13 42.24721 -73.81189 39835 ft 480 kts 185°
2026-05-05 09:14 42.18074 -73.81303 39834 ft 480 kts 185°
2026-05-05 09:14 42.11391 -73.81419 39839 ft 480 kts 185°
2026-05-05 09:15 42.04706 -73.81533 39845 ft 480 kts 185°
2026-05-05 09:15 41.98024 -73.81648 39844 ft 480 kts 185°
2026-05-05 09:16 41.91337 -73.81763 39851 ft 481 kts 185°
2026-05-05 09:16 41.84692 -73.81876 39858 ft 481 kts 185°
2026-05-05 09:17 41.78029 -73.82003 39863 ft 480 kts 186°
2026-05-05 09:17 41.71541 -73.83503 39871 ft 468 kts 204°
2026-05-05 09:18 41.65605 -73.86952 39865 ft 465 kts 209°
2026-05-05 09:18 41.59727 -73.90552 39868 ft 466 kts 209°
2026-05-05 09:19 41.53828 -73.94132 39867 ft 466 kts 209°
2026-05-05 09:19 41.47876 -73.97729 39879 ft 466 kts 208°
2026-05-05 09:20 41.42190 -74.01209 39874 ft 465 kts 211°
2026-05-05 09:20 41.36922 -74.05928 39876 ft 458 kts 222°
2026-05-05 09:21 41.31890 -74.11140 39878 ft 459 kts 221°
2026-05-05 09:21 41.26839 -74.16343 39881 ft 459 kts 221°
2026-05-05 09:22 41.21793 -74.21552 39887 ft 459 kts 223°
2026-05-05 09:22 41.17525 -74.27720 39902 ft 451 kts 240°
2026-05-05 09:23 41.14245 -74.34794 39899 ft 450 kts 241°
2026-05-05 09:23 41.11020 -74.41834 39898 ft 451 kts 241°
2026-05-05 09:24 41.07746 -74.48933 39898 ft 451 kts 241°
2026-05-05 09:24 41.04471 -74.56008 39899 ft 451 kts 241°
2026-05-05 09:25 41.01732 -74.61912 39899 ft 451 kts 241°
2026-05-05 09:25 40.98450 -74.68967 39897 ft 452 kts 241°
2026-05-05 09:26 40.94606 -74.77213 39897 ft 452 kts 240°
2026-05-05 09:26 40.91305 -74.84278 39898 ft 452 kts 241°
2026-05-05 09:27 40.87990 -74.91352 39898 ft 452 kts 240°
2026-05-05 09:27 40.85228 -74.97221 39900 ft 453 kts 240°
2026-05-05 09:28 40.81901 -75.04284 39905 ft 453 kts 240°
2026-05-05 09:28 40.78570 -75.11338 39904 ft 453 kts 240°
2026-05-05 09:29 40.75234 -75.18389 39905 ft 453 kts 240°
2026-05-05 09:29 40.71908 -75.25402 39905 ft 453 kts 240°
2026-05-05 09:30 40.68565 -75.32435 39904 ft 454 kts 240°
2026-05-05 09:30 40.65225 -75.39468 39655 ft 452 kts 241°
2026-05-05 09:30 40.63662 -75.43067 39425 ft 452 kts 243°
2026-05-05 09:31 40.62138 -75.46680 39191 ft 452 kts 243°
2026-05-05 09:31 40.60603 -75.50292 38988 ft 452 kts 243°
2026-05-05 09:31 40.59060 -75.53898 38759 ft 452 kts 243°
2026-05-05 09:31 40.57537 -75.57439 38525 ft 451 kts 243°
2026-05-05 09:32 40.55990 -75.61028 38234 ft 452 kts 242°
2026-05-05 09:32 40.54438 -75.64618 37952 ft 453 kts 242°
2026-05-05 09:32 40.52883 -75.68211 37511 ft 450 kts 242°
2026-05-05 09:32 40.51331 -75.71790 36884 ft 449 kts 242°
2026-05-05 09:33 40.49782 -75.75356 36203 ft 449 kts 241°
2026-05-05 09:33 40.48232 -75.78922 35520 ft 450 kts 241°
2026-05-05 09:33 40.46676 -75.82498 34820 ft 452 kts 240°
2026-05-05 09:33 40.45127 -75.86033 34072 ft 454 kts 239°
2026-05-05 09:34 40.43308 -75.89439 33213 ft 457 kts 229°
2026-05-05 09:34 40.41100 -75.92456 32366 ft 459 kts 224°
2026-05-05 09:34 40.38796 -75.95365 31509 ft 461 kts 224°
2026-05-05 09:34 40.36471 -75.98288 30626 ft 463 kts 224°
2026-05-05 09:35 40.34149 -76.01214 29913 ft 462 kts 224°
2026-05-05 09:35 40.29577 -76.06983 28583 ft 452 kts 225°
2026-05-05 09:35 40.27357 -76.09787 27961 ft 447 kts 225°
2026-05-05 09:36 40.25128 -76.12599 27337 ft 443 kts 225°
2026-05-05 09:36 40.22918 -76.15385 26700 ft 439 kts 225°
2026-05-05 09:36 40.20731 -76.18140 26094 ft 435 kts 225°
2026-05-05 09:36 40.18561 -76.20871 25480 ft 431 kts 225°
2026-05-05 09:37 40.16411 -76.23576 24866 ft 427 kts 225°
2026-05-05 09:37 40.14281 -76.26252 24265 ft 424 kts 225°
2026-05-05 09:37 40.12239 -76.29001 23675 ft 419 kts 231°
2026-05-05 09:37 40.10580 -76.32112 23026 ft 415 kts 239°
2026-05-05 09:38 40.09106 -76.35314 22414 ft 410 kts 240°
2026-05-05 09:38 40.07654 -76.38494 21822 ft 405 kts 240°
2026-05-05 09:38 40.06230 -76.41599 21244 ft 401 kts 240°
2026-05-05 09:38 40.04809 -76.44687 20654 ft 397 kts 240°
2026-05-05 09:39 40.03389 -76.47772 20053 ft 393 kts 240°
2026-05-05 09:39 40.01986 -76.50807 19456 ft 390 kts 240°
2026-05-05 09:39 40.00582 -76.53835 18854 ft 388 kts 240°
2026-05-05 09:39 39.99194 -76.56824 18231 ft 384 kts 240°
2026-05-05 09:40 39.97804 -76.59821 17202 ft 388 kts 240°
2026-05-05 09:40 39.96409 -76.62828 16285 ft 382 kts 240°
2026-05-05 09:40 39.95070 -76.65718 14889 ft 368 kts 240°
2026-05-05 09:40 39.93744 -76.68567 13395 ft 363 kts 239°
2026-05-05 09:41 39.92478 -76.71275 12803 ft 335 kts 239°
2026-05-05 09:41 39.91275 -76.73849 12348 ft 330 kts 239°
2026-05-05 09:41 39.90081 -76.76406 11852 ft 330 kts 239°
2026-05-05 09:41 39.88915 -76.78898 11693 ft 315 kts 239°
2026-05-05 09:42 39.87818 -76.81244 11558 ft 300 kts 239°
2026-05-05 09:42 39.86757 -76.83509 11423 ft 287 kts 239°
2026-05-05 09:42 39.85743 -76.85674 11289 ft 275 kts 239°
2026-05-05 09:42 39.84766 -76.87759 11157 ft 264 kts 239°
2026-05-05 09:43 39.83826 -76.89766 11036 ft 256 kts 239°
2026-05-05 09:43 39.82909 -76.91721 10898 ft 255 kts 239°
2026-05-05 09:43 39.81968 -76.93738 10794 ft 266 kts 239°
2026-05-05 09:43 39.80999 -76.95805 10630 ft 268 kts 239°
2026-05-05 09:44 39.80038 -76.97845 10486 ft 268 kts 239°
2026-05-05 09:44 39.79054 -76.99933 10343 ft 268 kts 239°
2026-05-05 09:44 39.78095 -77.01973 10218 ft 267 kts 239°
2026-05-05 09:44 39.77130 -77.04031 10079 ft 267 kts 239°
2026-05-05 09:45 39.76158 -77.06086 9932 ft 266 kts 239°
2026-05-05 09:45 39.75188 -77.08140 9806 ft 266 kts 239°
2026-05-05 09:45 39.74220 -77.10186 9637 ft 265 kts 239°
2026-05-05 09:45 39.73255 -77.12227 9481 ft 265 kts 239°
2026-05-05 09:46 39.72295 -77.14257 9324 ft 264 kts 239°
2026-05-05 09:46 39.71336 -77.16282 9168 ft 263 kts 239°
2026-05-05 09:46 39.70382 -77.18300 9012 ft 262 kts 239°
2026-05-05 09:46 39.69443 -77.20282 8862 ft 261 kts 239°
2026-05-05 09:47 39.68458 -77.22246 8709 ft 261 kts 234°
2026-05-05 09:47 39.67213 -77.23970 8552 ft 262 kts 226°
2026-05-05 09:47 39.65876 -77.25572 8396 ft 261 kts 225°
2026-05-05 09:47 39.64535 -77.27166 8244 ft 261 kts 225°
2026-05-05 09:48 39.63203 -77.28754 8093 ft 260 kts 225°
2026-05-05 09:48 39.61875 -77.30343 7957 ft 260 kts 226°
2026-05-05 09:48 39.60552 -77.31927 7807 ft 259 kts 226°
2026-05-05 09:48 39.59240 -77.33499 7669 ft 259 kts 226°
2026-05-05 09:49 39.57890 -77.35044 7506 ft 260 kts 221°
2026-05-05 09:49 39.56272 -77.36136 7359 ft 265 kts 204°
2026-05-05 09:49 39.54507 -77.36852 7217 ft 267 kts 201°
2026-05-05 09:49 39.52728 -77.37527 7068 ft 266 kts 202°
2026-05-05 09:50 39.50951 -77.38210 6923 ft 266 kts 202°
2026-05-05 09:50 39.49179 -77.38901 6780 ft 266 kts 202°
2026-05-05 09:50 39.47439 -77.39585 6643 ft 265 kts 202°
2026-05-05 09:50 39.45670 -77.40281 6491 ft 265 kts 202°
2026-05-05 09:51 39.43906 -77.40976 6345 ft 265 kts 202°
2026-05-05 09:51 39.42146 -77.41669 6193 ft 265 kts 202°
2026-05-05 09:51 39.40382 -77.42363 6040 ft 264 kts 203°
2026-05-05 09:51 39.38587 -77.42918 5884 ft 269 kts 192°
2026-05-05 09:52 39.36815 -77.43038 5745 ft 271 kts 186°
2026-05-05 09:52 39.34924 -77.43049 5598 ft 272 kts 186°
2026-05-05 09:52 39.33034 -77.43060 5445 ft 271 kts 186°
2026-05-05 09:52 39.31171 -77.43082 5296 ft 271 kts 186°
2026-05-05 09:53 39.29284 -77.43105 5147 ft 271 kts 186°
2026-05-05 09:53 39.27400 -77.43128 5000 ft 271 kts 186°
2026-05-05 09:53 39.25527 -77.43149 4852 ft 270 kts 186°
2026-05-05 09:53 39.23639 -77.43166 4703 ft 270 kts 186°
2026-05-05 09:54 39.21761 -77.43191 4508 ft 269 kts 186°
2026-05-05 09:54 39.19894 -77.43220 4263 ft 268 kts 186°
2026-05-05 09:54 39.18039 -77.43251 4216 ft 267 kts 186°
2026-05-05 09:54 39.16182 -77.43288 4214 ft 267 kts 186°
2026-05-05 09:55 39.14356 -77.43314 4065 ft 258 kts 186°
2026-05-05 09:55 39.12575 -77.43340 3726 ft 255 kts 186°
2026-05-05 09:55 39.10822 -77.43368 3353 ft 255 kts 186°
2026-05-05 09:55 39.09082 -77.43391 2949 ft 242 kts 187°
2026-05-05 09:56 39.07454 -77.43413 2633 ft 227 kts 187°
2026-05-05 09:56 39.05924 -77.43438 2347 ft 213 kts 188°
2026-05-05 09:56 39.04490 -77.43461 2061 ft 199 kts 187°
2026-05-05 09:56 39.03158 -77.43481 1826 ft 184 kts 187°
2026-05-05 09:57 39.01945 -77.43498 1582 ft 164 kts 188°
2026-05-05 09:57 39.00855 -77.43517 1371 ft 151 kts 187°
2026-05-05 09:57 38.99839 -77.43533 1164 ft 139 kts 186°
2026-05-05 09:57 38.98904 -77.43548 1000 ft 130 kts 184°
2026-05-05 09:58 38.98028 -77.43572 809 ft 126 kts 182°
2026-05-05 09:58 38.97156 -77.43577 667 ft 127 kts 180°
2026-05-05 09:58 38.96266 -77.43579 503 ft 128 kts 182°
2026-05-05 09:58 38.95375 -77.43595 319 ft 127 kts 182°
2026-05-05 09:59 38.94580 -77.43612 306 ft 95 kts 181°
2026-05-05 09:59 38.94054 -77.43618 309 ft 56 kts 180°
2026-05-05 09:59 38.93741 -77.43625 309 ft 37 kts 182°
2026-05-05 09:59 38.93535 -77.43660 309 ft 28 kts 197°
2026-05-05 10:00 38.93365 -77.43768 303 ft 19 kts 214°
2026-05-05 10:00 38.93346 -77.43868 304 ft 10 kts 316°
2026-05-05 10:00 38.93422 -77.43882 301 ft 13 kts 360°
2026-05-05 10:00 38.93524 -77.43883 302 ft 16 kts 359°
2026-05-05 10:01 38.93647 -77.43878 301 ft 19 kts
2026-05-05 10:01 38.93789 -77.43872 301 ft 22 kts 359°
2026-05-05 10:01 38.93947 -77.43874 302 ft 24 kts
2026-05-05 10:01 38.94122 -77.43872 302 ft 26 kts
2026-05-05 10:02 38.94314 -77.43869 303 ft 29 kts
2026-05-05 10:02 38.94484 -77.43866 301 ft 23 kts
2026-05-05 10:02 38.94650 -77.43863 302 ft 25 kts
2026-05-05 10:02 38.94834 -77.43861 301 ft 28 kts
2026-05-05 10:03 38.94983 -77.43869 302 ft 10 kts 330°
2026-05-05 10:03 38.95014 -77.43960 303 ft 13 kts 282°
2026-05-05 10:03 38.95021 -77.44087 299 ft 15 kts 271°
2026-05-05 10:03 38.95023 -77.44235 299 ft 18 kts 271°
2026-05-05 10:04 38.95024 -77.44408 298 ft 20 kts 270°
2026-05-05 10:04 38.95026 -77.44557 298 ft 14 kts 271°
2026-05-05 10:04 38.95027 -77.44697 298 ft 17 kts 271°
2026-05-05 10:04 38.95027 -77.44773 301 ft 8 kts 264°
2026-05-05 10:05 38.94991 -77.44812 302 ft 8 kts 200°
2026-05-05 10:05 38.94953 -77.44827 300 ft 2 kts 199°
2026-05-05 10:05 38.94938 -77.44834 300 ft 1 kts 200°
2026-05-05 10:05 38.94935 -77.44835 300 ft 0 kts 200°
2026-05-05 10:06 38.94935 -77.44836 299 ft 1 kts 200°
2026-05-05 10:06 38.94932 -77.44837 299 ft 0 kts 200°